[{"header": {"parameterCategory": 1, "parameterNumber": 2, "dx": 0.06612293990616946, "dy": 0.0552356325346848, "nx": 98, "ny": 59, "la1": 35.046912555036876, "la2": 31.78801023549047, "lo1": -121.43107172385933, "lo2": -114.95102361305473, "refTime": "2026041110"}, "data": [7.6, 7.6, 7.6, 7.6, 7.6, 7.6, 7.15, 7.6, 7.6, 7.6, 7.6, 8.05, 8.05, 8.49, 8.05, 8.05, 8.05, 8.05, 8.05, 8.05, 8.05, 8.05, 8.05, 8.05, 8.05, 8.05, 8.05, 8.05, 8.49, 8.49, 8.49, 8.49, 8.49, 8.05, 8.49, 8.49, 8.49, 8.94, 8.94, 8.49, 8.49, 8.49, 8.05, 8.05, 8.05, 7.6, 6.71, 5.81, 5.81, 6.71, 8.94, 10.73, 11.62, 11.62, 11.18, 10.73, 10.28, 10.28, 9.83, 9.83, 9.39, 9.39, 8.94, 8.49, 7.6, 7.15, 6.71, 5.81, 5.36, 4.92, 4.92, 5.36, 5.36, 5.36, 5.36, 4.92, 4.92, 4.92, 4.92, 5.36, 5.36, 5.81, 5.81, 6.26, 6.26, 6.71, 6.71, 6.71, 6.71, 6.71, 7.15, 7.15, 7.6, 8.05, 8.05, 8.49, 8.94, 8.94, 8.05, 8.05, 8.05, 8.05, 8.05, 7.6, 7.6, 7.6, 8.05, 8.05, 8.05, 8.49, 8.49, 8.49, 8.49, 8.49, 8.49, 8.49, 8.49, 8.49, 8.49, 8.49, 8.05, 8.05, 8.49, 8.49, 8.49, 8.94, 8.94, 8.94, 8.49, 8.49, 8.49, 8.49, 8.49, 8.49, 8.94, 9.39, 9.39, 8.94, 8.94, 8.94, 8.49, 8.49, 8.05, 8.05, 7.6, 6.71, 6.26, 7.6, 10.28, 12.07, 12.07, 11.62, 11.62, 11.18, 10.73, 10.28, 10.28, 10.28, 9.83, 9.39, 8.94, 8.49, 8.05, 7.6, 7.15, 6.26, 5.36, 4.92, 4.47, 4.92, 5.36, 5.36, 5.36, 4.92, 4.92, 4.92, 4.92, 5.36, 5.36, 5.81, 5.81, 6.26, 6.26, 6.71, 6.71, 6.71, 6.71, 6.71, 7.15, 7.15, 7.6, 8.05, 8.05, 8.49, 8.94, 8.94, 8.49, 8.49, 8.49, 8.49, 8.05, 8.05, 8.05, 8.05, 8.05, 8.49, 8.49, 8.49, 8.94, 8.94, 8.94, 8.94, 8.94, 8.94, 8.94, 8.94, 8.94, 8.94, 8.94, 8.49, 8.49, 8.94, 8.94, 9.39, 9.39, 8.94, 8.94, 8.94, 8.94, 8.94, 8.94, 8.94, 9.39, 9.83, 9.83, 9.83, 9.39, 9.39, 8.94, 8.94, 8.49, 8.49, 8.49, 8.49, 8.05, 9.39, 10.73, 11.62, 12.07, 11.62, 11.62, 11.18, 11.18, 10.73, 10.73, 10.28, 10.28, 9.83, 9.39, 8.94, 8.49, 8.05, 7.6, 6.71, 5.81, 4.92, 4.47, 4.47, 4.92, 5.81, 5.81, 5.36, 5.36, 4.92, 5.36, 5.36, 5.36, 5.81, 5.81, 6.26, 6.26, 6.71, 6.71, 7.15, 7.15, 7.15, 7.15, 7.6, 7.6, 8.05, 8.49, 8.94, 8.94, 9.39, 8.94, 8.94, 8.94, 8.49, 8.49, 8.49, 8.49, 8.49, 8.49, 8.94, 8.94, 8.94, 9.39, 9.39, 9.39, 9.39, 9.39, 9.39, 9.39, 9.39, 9.39, 9.39, 9.39, 8.94, 8.94, 8.94, 8.94, 9.39, 9.39, 9.39, 9.39, 9.39, 9.39, 9.39, 9.39, 9.39, 9.83, 10.28, 10.73, 10.28, 9.83, 9.39, 9.39, 9.39, 8.94, 8.94, 8.94, 9.39, 9.83, 10.73, 11.18, 11.62, 11.62, 11.62, 11.62, 11.62, 11.18, 11.18, 10.73, 10.73, 10.28, 10.28, 9.83, 9.39, 8.94, 8.49, 8.49, 7.6, 6.26, 4.92, 4.02, 4.47, 5.36, 6.26, 6.26, 6.26, 5.81, 5.36, 5.36, 5.36, 5.36, 5.81, 5.81, 6.26, 6.71, 6.71, 7.15, 7.15, 7.15, 7.15, 7.15, 7.6, 7.6, 8.05, 8.49, 8.94, 9.39, 9.39, 8.94, 8.94, 8.94, 8.94, 8.94, 8.94, 8.94, 8.94, 8.94, 9.39, 9.39, 9.39, 9.39, 9.39, 9.83, 9.83, 9.83, 9.83, 9.83, 9.83, 9.83, 9.83, 9.83, 9.83, 9.39, 9.39, 9.39, 9.39, 9.39, 9.83, 10.28, 9.83, 9.83, 9.83, 9.83, 9.83, 10.28, 10.28, 10.73, 10.73, 10.28, 9.83, 9.83, 9.83, 9.39, 9.39, 9.39, 9.83, 10.28, 11.18, 11.62, 11.62, 11.62, 12.07, 12.07, 11.62, 11.62, 11.18, 10.73, 10.73, 10.73, 10.28, 10.28, 9.83, 9.39, 9.39, 9.39, 8.94, 7.6, 6.26, 4.92, 4.92, 5.36, 6.71, 7.15, 6.71, 6.26, 5.81, 5.36, 5.36, 5.36, 5.81, 5.81, 6.26, 6.71, 6.71, 7.15, 7.15, 7.15, 7.15, 7.6, 7.6, 8.05, 8.05, 8.49, 8.94, 9.39, 9.39, 9.39, 9.39, 9.39, 9.39, 9.39, 9.39, 9.39, 9.39, 9.39, 9.83, 9.83, 9.83, 9.83, 9.83, 9.83, 9.83, 9.83, 10.28, 10.28, 10.28, 10.28, 10.28, 10.28, 10.28, 10.28, 10.28, 9.83, 9.83, 10.28, 10.28, 10.73, 10.73, 10.28, 10.28, 10.28, 10.28, 10.28, 10.28, 10.73, 11.18, 10.73, 10.73, 10.28, 10.28, 9.83, 9.83, 9.83, 10.28, 10.73, 11.18, 11.62, 11.62, 12.07, 12.07, 12.07, 12.07, 11.62, 11.18, 11.18, 11.18, 11.18, 10.73, 10.73, 10.28, 10.28, 9.83, 9.83, 9.83, 8.94, 8.05, 6.71, 5.81, 6.26, 6.71, 7.15, 7.15, 6.71, 6.26, 5.81, 5.36, 5.81, 5.81, 6.26, 6.26, 6.71, 7.15, 7.15, 7.6, 7.15, 7.6, 7.6, 7.6, 8.05, 8.49, 8.94, 8.94, 9.39, 9.83, 9.83, 9.83, 9.83, 9.83, 9.83, 9.83, 9.83, 9.83, 9.83, 10.28, 10.28, 10.28, 10.28, 10.28, 10.28, 10.28, 10.28, 10.28, 10.73, 10.73, 10.73, 10.73, 10.73, 10.73, 10.73, 10.73, 10.73, 10.28, 10.73, 10.73, 10.73, 10.73, 10.73, 10.73, 10.73, 11.18, 10.73, 10.73, 10.73, 11.18, 11.18, 11.18, 10.73, 10.73, 10.28, 10.28, 10.28, 10.28, 10.73, 11.18, 11.62, 11.62, 12.07, 12.52, 12.07, 12.07, 11.62, 11.62, 11.18, 11.18, 11.18, 11.18, 11.18, 11.18, 11.18, 10.73, 10.73, 10.73, 10.28, 8.94, 8.05, 7.15, 6.71, 6.71, 7.15, 7.15, 6.71, 6.71, 6.26, 5.81, 5.81, 5.81, 6.26, 6.71, 6.71, 7.15, 7.6, 7.6, 7.6, 7.6, 7.6, 7.6, 8.05, 8.49, 8.94, 9.39, 9.83, 9.83, 10.28, 10.28, 10.28, 10.28, 10.28, 10.28, 10.28, 10.28, 10.73, 10.73, 10.73, 10.73, 10.73, 10.73, 10.73, 10.73, 10.73, 10.73, 10.73, 11.18, 11.18, 11.18, 11.18, 11.18, 11.18, 11.18, 11.18, 11.18, 11.18, 11.18, 11.18, 11.18, 11.18, 11.18, 11.18, 11.18, 11.18, 11.18, 11.18, 11.18, 11.62, 11.62, 11.18, 11.18, 10.73, 10.73, 10.73, 10.73, 11.18, 11.18, 11.18, 11.62, 12.07, 12.52, 12.52, 12.07, 11.62, 11.62, 11.62, 11.62, 11.62, 12.07, 12.07, 12.07, 11.62, 11.62, 11.18, 11.18, 10.73, 9.39, 8.49, 7.15, 6.71, 6.71, 7.15, 7.15, 6.71, 6.71, 6.26, 6.26, 6.26, 6.26, 6.26, 6.71, 7.15, 7.15, 7.6, 7.6, 7.6, 7.6, 7.6, 8.05, 8.05, 8.49, 8.94, 9.39, 9.83, 9.83, 10.73, 10.73, 10.73, 10.73, 10.73, 10.73, 11.18, 11.18, 11.18, 11.18, 11.18, 11.18, 11.18, 11.18, 11.18, 11.18, 11.18, 11.18, 11.18, 11.18, 11.62, 11.62, 11.62, 11.62, 11.62, 11.62, 11.62, 11.62, 11.62, 11.62, 11.62, 11.62, 11.62, 11.62, 11.62, 11.62, 11.62, 11.62, 11.62, 11.62, 11.62, 11.62, 11.62, 11.62, 11.18, 11.18, 11.18, 11.18, 11.18, 11.18, 11.62, 11.62, 12.07, 12.52, 12.52, 12.07, 12.07, 11.62, 11.62, 12.07, 12.52, 12.52, 12.52, 12.52, 12.52, 12.07, 11.62, 11.18, 10.73, 9.83, 8.49, 7.15, 6.26, 6.71, 7.15, 7.15, 6.71, 6.26, 6.26, 6.26, 6.26, 6.26, 6.71, 6.71, 7.15, 7.15, 7.6, 8.05, 7.6, 7.6, 7.6, 8.05, 8.49, 8.49, 8.94, 9.39, 9.83, 10.28, 11.18, 11.18, 11.18, 11.18, 11.18, 11.62, 11.62, 11.62, 11.62, 11.62, 11.18, 11.18, 11.18, 11.62, 11.62, 11.62, 11.62, 11.62, 11.62, 11.62, 12.07, 12.07, 12.07, 12.07, 12.07, 12.07, 12.07, 12.07, 12.07, 12.07, 12.07, 12.07, 12.07, 12.07, 12.07, 11.62, 12.07, 12.07, 11.62, 11.62, 11.62, 12.07, 12.07, 12.07, 11.62, 11.62, 11.62, 11.62, 11.62, 11.62, 11.62, 12.07, 12.07, 12.52, 12.52, 12.52, 12.52, 12.52, 12.52, 12.96, 12.96, 13.41, 13.41, 13.41, 12.96, 12.52, 12.07, 11.62, 10.73, 9.83, 8.49, 7.15, 6.26, 6.26, 6.71, 6.71, 6.71, 6.26, 6.26, 6.26, 6.26, 6.26, 6.71, 6.71, 7.15, 7.15, 7.6, 8.05, 8.05, 8.05, 8.05, 8.05, 8.49, 8.49, 8.94, 9.83, 10.28, 10.28, 11.62, 11.62, 11.62, 11.62, 12.07, 12.07, 12.07, 12.07, 12.07, 11.62, 11.62, 11.62, 11.62, 11.62, 12.07, 12.07, 12.07, 12.07, 12.07, 12.07, 12.07, 12.07, 12.52, 12.52, 12.52, 12.52, 12.07, 12.52, 12.52, 12.52, 12.52, 12.52, 12.52, 12.52, 12.52, 12.07, 12.07, 12.07, 12.07, 12.07, 12.07, 12.07, 12.07, 12.07, 12.07, 12.07, 12.07, 12.07, 12.07, 12.52, 12.52, 12.96, 12.96, 12.96, 12.96, 12.96, 12.96, 13.41, 13.41, 13.86, 13.86, 13.86, 13.86, 13.86, 13.41, 12.96, 12.07, 11.62, 10.73, 9.83, 8.05, 6.71, 6.26, 6.26, 6.71, 6.71, 6.71, 6.26, 6.26, 6.26, 6.26, 6.26, 6.71, 6.71, 7.15, 7.15, 7.6, 8.05, 8.05, 8.05, 8.05, 8.05, 8.49, 8.94, 9.39, 9.83, 10.28, 10.28, 12.07, 12.07, 12.07, 12.52, 12.52, 12.52, 12.52, 12.52, 12.52, 12.07, 12.07, 12.07, 12.07, 12.07, 12.07, 12.52, 12.52, 12.52, 12.52, 12.52, 12.52, 12.52, 12.52, 12.52, 12.52, 12.52, 12.52, 12.52, 12.52, 12.52, 12.52, 12.96, 12.96, 12.96, 12.52, 12.52, 12.52, 12.52, 12.07, 12.07, 12.07, 12.52, 12.52, 12.52, 12.52, 12.52, 12.52, 12.52, 12.52, 12.96, 13.41, 13.86, 14.3, 14.3, 14.75, 14.75, 14.3, 13.86, 13.86, 14.75, 14.75, 14.3, 14.3, 14.3, 14.3, 13.86, 12.52, 11.62, 10.73, 9.39, 8.49, 7.15, 6.71, 6.71, 7.15, 7.15, 6.71, 6.71, 6.71, 6.71, 6.71, 6.71, 6.71, 6.71, 7.15, 7.15, 7.6, 8.05, 8.05, 8.05, 8.49, 8.49, 8.49, 8.94, 9.39, 9.83, 10.28, 10.28, 12.52, 12.52, 12.52, 12.96, 12.96, 12.96, 12.96, 12.96, 12.96, 12.52, 12.52, 12.52, 12.52, 12.52, 12.52, 12.96, 12.96, 12.96, 12.96, 12.96, 12.96, 12.96, 12.96, 12.96, 12.96, 12.96, 12.96, 12.96, 12.96, 12.96, 12.96, 12.96, 12.96, 12.96, 12.96, 12.96, 12.96, 12.96, 12.52, 12.52, 12.52, 12.52, 12.52, 12.96, 12.96, 12.96, 12.96, 12.96, 12.96, 12.96, 13.41, 14.3, 14.75, 14.75, 15.2, 15.65, 15.2, 14.75, 14.3, 15.2, 15.65, 15.2, 15.2, 15.2, 15.2, 15.2, 14.3, 12.96, 11.18, 9.39, 8.05, 7.6, 7.15, 7.6, 8.05, 8.05, 7.6, 7.15, 7.15, 7.15, 7.15, 6.71, 7.15, 7.15, 7.15, 7.15, 7.6, 8.05, 8.05, 8.05, 8.49, 8.94, 8.94, 8.94, 9.39, 9.83, 10.28, 10.28, 12.96, 12.96, 13.41, 13.41, 13.41, 13.41, 13.41, 13.41, 13.41, 12.96, 12.96, 12.96, 12.96, 12.96, 12.96, 12.96, 13.41, 13.41, 13.41, 13.41, 13.41, 13.41, 13.41, 13.41, 13.41, 13.41, 13.41, 13.41, 13.41, 13.41, 13.41, 13.41, 13.41, 13.41, 13.41, 13.41, 13.41, 12.96, 13.41, 12.96, 12.96, 12.96, 12.96, 12.96, 12.96, 12.96, 13.41, 13.41, 13.41, 13.41, 13.86, 13.86, 14.3, 14.75, 15.2, 15.65, 16.09, 15.65, 15.2, 15.65, 15.65, 15.65, 15.65, 15.65, 15.65, 15.65, 15.65, 14.75, 12.96, 10.73, 8.49, 7.6, 8.05, 8.49, 8.94, 8.94, 8.05, 7.6, 7.15, 7.15, 7.15, 7.15, 7.15, 7.6, 7.15, 7.15, 7.6, 8.05, 8.05, 8.05, 8.49, 8.94, 8.94, 8.94, 9.39, 9.83, 10.28, 10.28, 13.41, 13.41, 13.86, 13.86, 13.86, 13.86, 13.86, 13.86, 13.86, 13.41, 13.41, 13.41, 13.41, 13.41, 13.41, 13.41, 13.86, 13.86, 13.86, 13.86, 13.86, 13.41, 13.86, 13.86, 13.86, 13.86, 13.86, 13.86, 13.86, 13.86, 13.86, 13.86, 13.86, 13.86, 13.86, 13.86, 13.41, 13.41, 13.86, 13.41, 13.41, 13.41, 13.41, 13.41, 13.41, 13.41, 13.41, 13.41, 13.86, 13.86, 13.86, 13.86, 14.3, 14.3, 14.75, 15.2, 15.65, 15.65, 15.2, 15.65, 15.65, 15.65, 16.09, 16.09, 16.09, 16.09, 15.65, 15.2, 14.3, 12.52, 10.28, 8.94, 8.94, 9.83, 9.83, 9.39, 8.49, 8.05, 7.6, 7.6, 7.6, 7.6, 7.6, 7.6, 7.6, 7.6, 7.6, 8.05, 8.05, 8.05, 8.49, 8.94, 9.39, 9.39, 9.39, 10.28, 10.28, 10.28, 13.86, 13.86, 14.3, 14.3, 14.3, 14.3, 14.3, 14.3, 14.3, 14.3, 13.86, 13.86, 13.86, 13.86, 13.86, 14.3, 14.3, 14.3, 14.3, 14.3, 13.86, 13.86, 13.86, 14.3, 14.3, 14.3, 14.3, 14.3, 14.3, 14.3, 14.3, 14.3, 14.3, 14.3, 14.3, 13.86, 13.86, 13.86, 14.3, 13.86, 13.86, 13.86, 13.86, 13.86, 13.86, 13.86, 13.86, 13.86, 13.86, 13.86, 13.86, 13.86, 14.3, 14.75, 14.75, 15.2, 15.65, 15.65, 15.2, 15.2, 15.2, 15.2, 15.65, 15.65, 15.65, 15.65, 15.65, 15.65, 15.2, 13.86, 11.62, 10.28, 9.83, 10.28, 10.28, 9.83, 8.94, 8.49, 8.05, 8.05, 8.05, 8.05, 7.6, 7.6, 8.05, 8.05, 8.05, 8.05, 8.05, 8.05, 8.05, 9.39, 9.39, 9.39, 9.83, 10.28, 10.28, 10.28, 14.3, 14.3, 14.75, 14.75, 14.75, 14.75, 14.75, 14.75, 14.75, 14.75, 14.75, 14.75, 14.75, 14.75, 14.75, 14.75, 14.75, 14.75, 14.75, 14.75, 14.75, 14.3, 14.3, 14.3, 14.75, 14.75, 14.75, 14.3, 14.3, 14.3, 14.3, 14.3, 14.3, 14.3, 14.3, 14.75, 14.3, 14.3, 14.3, 14.3, 14.3, 14.3, 14.3, 14.3, 14.3, 14.3, 14.3, 14.3, 14.3, 13.86, 13.86, 14.3, 14.3, 14.3, 14.75, 15.2, 15.2, 15.2, 15.2, 14.75, 14.75, 14.75, 15.2, 15.2, 15.65, 15.2, 15.65, 16.09, 16.09, 14.75, 12.96, 10.73, 9.83, 10.28, 10.73, 10.28, 9.39, 8.94, 8.94, 8.94, 8.49, 8.49, 8.49, 8.05, 8.05, 8.49, 8.05, 8.49, 8.05, 8.05, 8.05, 8.94, 9.39, 9.39, 9.83, 10.28, 10.73, 10.73, 14.75, 14.75, 15.2, 15.2, 15.2, 15.2, 15.2, 15.2, 15.2, 15.2, 15.2, 15.2, 15.2, 15.2, 15.2, 15.2, 15.2, 15.2, 15.2, 15.2, 15.2, 15.2, 14.75, 14.75, 15.2, 15.2, 15.2, 15.2, 14.75, 14.75, 14.75, 15.2, 15.2, 15.2, 15.2, 15.2, 15.2, 14.75, 14.75, 14.75, 14.75, 14.75, 14.75, 14.75, 14.75, 14.75, 14.75, 14.75, 14.75, 14.3, 14.3, 14.75, 14.75, 15.2, 15.2, 15.2, 15.2, 15.2, 15.2, 14.75, 15.2, 15.2, 15.65, 15.65, 15.65, 15.2, 15.65, 16.09, 16.09, 15.65, 13.86, 11.62, 10.28, 10.73, 11.18, 11.18, 10.73, 10.28, 10.28, 9.83, 9.39, 9.39, 9.39, 8.49, 8.94, 8.94, 8.94, 8.49, 8.49, 8.05, 8.05, 8.94, 9.39, 9.83, 9.83, 10.28, 10.73, 10.73, 15.65, 15.65, 15.65, 15.65, 15.65, 15.65, 15.65, 15.65, 15.65, 15.65, 15.65, 15.65, 15.65, 15.65, 15.65, 15.65, 15.65, 15.65, 15.65, 15.65, 15.65, 15.65, 15.65, 15.65, 15.65, 15.65, 15.65, 15.65, 15.65, 15.65, 15.65, 15.65, 15.65, 15.65, 15.65, 15.65, 15.65, 15.65, 15.65, 15.2, 15.65, 15.65, 15.65, 15.65, 15.65, 15.2, 15.2, 15.2, 15.2, 14.75, 14.75, 15.2, 15.2, 15.2, 15.2, 15.2, 15.65, 15.65, 15.2, 15.2, 15.2, 15.65, 15.65, 15.65, 15.65, 15.65, 15.65, 15.65, 16.09, 15.65, 14.3, 12.07, 10.73, 10.73, 11.18, 11.18, 11.18, 11.18, 11.18, 10.73, 9.83, 9.83, 9.83, 9.39, 8.94, 9.39, 9.39, 8.94, 8.94, 8.49, 8.49, 8.49, 9.39, 9.83, 10.28, 10.28, 10.73, 10.73, 16.09, 16.09, 16.09, 16.09, 16.54, 16.54, 16.54, 16.09, 16.09, 16.09, 16.54, 16.54, 16.54, 16.54, 16.54, 16.54, 16.54, 16.54, 16.09, 16.09, 16.09, 16.09, 16.09, 16.09, 16.09, 16.09, 16.09, 16.09, 16.09, 16.09, 16.09, 16.09, 16.09, 16.09, 16.09, 16.09, 16.09, 16.09, 16.09, 16.09, 16.09, 16.09, 16.09, 16.09, 16.09, 16.09, 15.65, 15.65, 15.65, 15.2, 15.2, 15.2, 15.65, 15.65, 15.65, 15.65, 15.65, 15.65, 15.65, 15.65, 15.65, 15.65, 15.65, 15.65, 15.65, 15.65, 15.65, 15.65, 15.65, 15.65, 14.3, 12.52, 10.73, 10.28, 10.73, 10.73, 10.73, 11.18, 11.18, 10.73, 10.28, 9.83, 9.83, 9.83, 9.39, 9.39, 9.39, 9.39, 8.94, 8.94, 8.94, 8.49, 9.39, 9.83, 10.28, 10.28, 10.73, 10.73, 16.54, 16.54, 16.54, 16.99, 16.99, 16.99, 16.99, 16.99, 16.99, 16.99, 16.99, 16.99, 16.99, 16.99, 16.99, 16.99, 16.99, 16.99, 16.99, 16.54, 16.54, 16.99, 16.54, 16.54, 16.54, 16.54, 16.54, 16.54, 16.54, 16.54, 16.54, 16.54, 16.54, 16.99, 16.99, 16.99, 16.99, 16.99, 16.54, 16.54, 16.54, 16.54, 16.54, 16.54, 16.54, 16.54, 16.09, 16.09, 16.09, 15.65, 15.65, 15.65, 15.65, 16.09, 16.09, 16.09, 16.09, 16.09, 16.09, 15.65, 15.65, 15.65, 15.65, 16.09, 15.65, 15.65, 15.65, 16.09, 16.09, 16.09, 15.2, 12.96, 10.73, 9.83, 10.28, 10.28, 10.73, 11.18, 11.18, 10.73, 10.28, 9.83, 9.83, 9.83, 9.83, 9.83, 9.83, 9.83, 9.39, 9.39, 8.94, 8.94, 9.39, 9.83, 10.28, 10.73, 10.73, 10.73, 17.43, 17.43, 17.43, 17.43, 17.43, 17.43, 17.43, 17.43, 17.43, 17.43, 17.88, 17.88, 17.88, 17.88, 17.88, 17.88, 17.43, 17.43, 17.43, 17.43, 17.43, 17.43, 17.43, 17.43, 17.43, 17.43, 17.43, 17.43, 17.43, 17.43, 17.43, 17.43, 17.43, 17.43, 17.43, 17.43, 17.43, 17.43, 17.43, 17.43, 17.43, 17.43, 16.99, 16.99, 16.99, 16.99, 16.54, 16.54, 16.54, 16.09, 16.09, 16.09, 16.09, 16.09, 16.54, 16.54, 16.09, 16.09, 16.09, 16.09, 16.09, 16.09, 16.09, 16.09, 16.09, 15.65, 16.09, 16.09, 16.09, 16.54, 16.09, 13.86, 9.83, 8.49, 10.28, 10.28, 10.28, 10.73, 10.73, 10.28, 10.28, 9.83, 9.83, 9.83, 9.83, 9.83, 9.83, 9.83, 9.39, 9.39, 9.39, 9.39, 9.39, 10.28, 10.73, 10.73, 11.18, 11.18, 18.33, 18.33, 18.33, 18.33, 18.33, 18.33, 18.33, 18.33, 18.33, 18.33, 18.33, 18.33, 18.33, 18.33, 18.33, 18.33, 18.33, 18.33, 18.33, 18.33, 17.88, 17.88, 17.88, 17.88, 17.88, 17.88, 17.88, 17.88, 17.88, 18.33, 18.33, 18.33, 17.88, 17.88, 18.33, 18.33, 18.33, 18.33, 17.88, 17.88, 17.88, 17.88, 17.88, 17.43, 17.43, 17.43, 16.99, 16.99, 16.99, 16.54, 16.54, 16.54, 16.54, 16.54, 16.99, 16.99, 16.54, 16.54, 16.54, 16.54, 16.54, 16.54, 16.54, 16.09, 16.09, 16.09, 16.09, 16.09, 16.54, 16.54, 16.99, 15.65, 8.49, 9.83, 10.73, 10.28, 10.28, 10.28, 10.28, 10.28, 9.83, 9.83, 9.83, 9.83, 9.83, 9.39, 9.83, 9.83, 9.39, 9.39, 9.39, 9.39, 9.83, 10.28, 10.73, 10.73, 11.18, 11.18, 19.22, 19.22, 18.78, 18.78, 19.22, 19.22, 19.22, 19.22, 19.22, 19.22, 19.22, 19.22, 19.22, 19.22, 19.22, 19.22, 18.78, 18.78, 18.78, 18.78, 18.78, 18.78, 18.78, 18.78, 18.78, 18.78, 18.78, 18.78, 18.78, 18.78, 18.78, 18.78, 18.78, 18.78, 18.78, 18.78, 18.78, 18.78, 18.78, 18.78, 18.78, 18.33, 18.33, 18.33, 17.88, 17.88, 17.43, 17.43, 17.43, 16.99, 16.99, 16.54, 16.54, 16.99, 16.99, 16.99, 16.99, 16.99, 16.54, 16.54, 16.99, 16.99, 16.54, 16.54, 16.54, 16.09, 16.09, 16.09, 16.09, 16.54, 16.99, 13.86, 10.28, 9.39, 9.83, 9.83, 9.83, 9.83, 9.83, 9.83, 9.83, 9.83, 9.83, 9.39, 9.39, 9.39, 9.39, 9.83, 9.83, 9.83, 9.39, 9.39, 9.83, 10.28, 10.73, 11.18, 11.18, 11.18, 20.12, 20.12, 19.67, 19.67, 19.67, 20.12, 20.12, 20.12, 20.12, 20.12, 20.12, 19.67, 19.67, 19.67, 19.67, 19.67, 19.67, 19.67, 19.67, 19.67, 19.67, 19.67, 19.67, 19.67, 19.67, 19.67, 19.67, 19.67, 19.67, 19.67, 19.67, 19.67, 19.67, 19.67, 19.67, 19.67, 19.67, 19.67, 19.67, 19.22, 19.22, 19.22, 18.78, 18.78, 18.33, 18.33, 17.88, 17.88, 17.88, 17.43, 17.43, 16.99, 16.99, 17.43, 17.43, 17.43, 17.43, 17.43, 17.43, 16.99, 16.99, 16.99, 16.99, 16.99, 16.54, 16.54, 16.54, 16.54, 16.54, 16.99, 16.54, 15.65, 12.52, 9.83, 8.94, 8.94, 9.39, 10.28, 10.28, 9.83, 9.83, 9.83, 9.83, 9.39, 9.39, 9.39, 9.39, 9.83, 9.83, 9.83, 9.39, 9.39, 9.83, 10.28, 10.73, 11.18, 11.62, 11.62, 21.01, 21.01, 20.56, 20.56, 20.56, 21.01, 21.01, 20.56, 20.56, 20.56, 20.56, 20.56, 20.56, 20.56, 20.56, 20.56, 20.56, 20.56, 20.56, 20.56, 20.56, 20.56, 20.56, 20.56, 20.56, 20.56, 20.56, 20.56, 20.56, 20.56, 20.56, 20.56, 20.56, 20.56, 20.56, 20.56, 20.56, 20.12, 20.12, 20.12, 19.67, 19.67, 19.22, 19.22, 18.78, 18.78, 18.78, 18.33, 18.33, 17.88, 17.88, 17.43, 17.43, 17.43, 17.43, 17.43, 17.43, 17.43, 17.88, 17.43, 16.99, 17.43, 17.43, 16.99, 16.99, 16.99, 16.54, 16.54, 16.54, 16.99, 16.54, 16.09, 14.3, 11.18, 8.94, 8.05, 8.94, 10.28, 10.73, 10.28, 10.28, 9.83, 9.83, 9.83, 9.39, 8.94, 9.39, 9.39, 9.83, 10.28, 9.83, 9.39, 9.39, 10.28, 10.73, 11.18, 11.62, 11.62, 21.9, 21.9, 21.46, 21.46, 21.46, 21.46, 21.46, 21.46, 21.46, 21.46, 21.46, 21.46, 21.46, 21.46, 21.46, 21.46, 21.46, 21.46, 21.46, 21.46, 21.01, 21.01, 21.01, 21.01, 21.01, 21.01, 21.01, 21.01, 21.46, 21.46, 21.46, 21.9, 21.9, 21.9, 21.9, 21.9, 21.46, 21.46, 21.46, 21.01, 21.01, 20.56, 20.56, 19.67, 19.67, 19.22, 19.22, 18.78, 18.78, 18.33, 17.88, 17.88, 17.88, 17.88, 17.88, 17.43, 17.88, 17.88, 17.88, 17.88, 17.88, 17.43, 17.43, 17.43, 17.43, 16.99, 16.99, 16.99, 16.99, 16.99, 16.99, 16.54, 15.2, 13.41, 11.18, 9.39, 8.94, 10.73, 11.62, 10.73, 10.73, 10.28, 10.28, 9.83, 9.39, 9.39, 9.39, 9.83, 9.83, 10.28, 10.28, 9.83, 9.39, 9.83, 10.73, 11.18, 11.62, 11.62, 22.8, 22.8, 22.35, 22.35, 22.35, 22.35, 22.35, 22.35, 22.35, 22.35, 22.35, 22.35, 22.35, 22.35, 22.35, 22.35, 22.35, 22.35, 22.35, 22.35, 22.35, 22.35, 21.9, 21.9, 21.9, 21.9, 21.9, 22.8, 22.8, 22.8, 22.8, 22.8, 22.8, 22.35, 22.35, 22.35, 22.35, 21.9, 21.9, 21.9, 21.46, 21.46, 21.01, 20.56, 20.12, 20.12, 19.67, 19.22, 18.78, 18.78, 18.33, 18.33, 18.33, 17.88, 17.88, 17.88, 17.88, 17.88, 18.33, 17.88, 17.88, 17.88, 17.88, 17.88, 17.43, 16.99, 16.99, 17.43, 17.43, 17.43, 16.99, 16.54, 15.65, 14.3, 12.52, 11.18, 10.73, 10.73, 11.62, 11.62, 11.62, 11.18, 10.73, 10.28, 9.83, 9.83, 9.83, 9.83, 9.83, 10.28, 10.73, 10.28, 9.39, 9.83, 10.73, 11.18, 11.62, 11.62, 23.69, 23.69, 23.25, 23.25, 23.25, 23.25, 23.25, 23.25, 23.25, 23.25, 23.25, 23.25, 23.25, 23.25, 23.25, 23.25, 23.25, 23.25, 23.25, 23.25, 23.25, 23.25, 23.25, 22.8, 22.8, 23.69, 23.69, 23.69, 23.69, 23.69, 23.69, 23.25, 23.25, 23.25, 22.8, 22.8, 22.8, 22.8, 22.35, 22.35, 21.9, 21.9, 21.46, 21.01, 20.56, 20.12, 20.12, 20.12, 19.67, 19.22, 18.78, 18.78, 18.33, 18.33, 18.33, 17.88, 18.33, 18.33, 18.33, 18.33, 17.88, 17.88, 17.88, 17.88, 17.43, 17.43, 17.43, 17.43, 17.88, 17.88, 17.43, 16.54, 15.65, 14.3, 12.96, 12.07, 12.07, 11.62, 11.18, 12.07, 12.52, 12.07, 11.18, 10.73, 10.28, 10.28, 10.28, 9.83, 10.28, 10.73, 10.73, 10.73, 10.73, 10.28, 10.73, 11.18, 11.62, 11.62, 24.59, 24.59, 24.14, 24.14, 24.14, 24.14, 24.14, 24.14, 24.14, 24.14, 24.14, 24.14, 24.14, 24.14, 24.14, 24.14, 24.14, 24.14, 24.14, 24.14, 24.14, 24.14, 25.03, 24.59, 24.59, 24.59, 24.59, 24.14, 24.14, 24.14, 24.14, 24.14, 23.69, 23.69, 23.69, 23.25, 23.25, 23.25, 22.8, 22.8, 22.35, 21.9, 21.9, 21.46, 21.01, 20.56, 20.12, 20.56, 20.12, 19.67, 19.22, 19.22, 18.78, 18.33, 18.33, 18.33, 18.33, 18.33, 18.33, 18.78, 17.88, 17.88, 17.88, 18.33, 17.88, 17.88, 17.88, 17.43, 17.88, 17.88, 17.88, 17.43, 16.09, 14.3, 12.96, 12.52, 12.96, 12.52, 11.62, 11.62, 12.96, 12.52, 11.62, 10.73, 10.28, 10.28, 10.28, 10.28, 10.28, 10.73, 11.18, 11.18, 11.18, 10.73, 11.18, 11.62, 12.07, 12.07, 25.48, 25.48, 25.48, 25.03, 25.03, 25.03, 25.03, 25.03, 25.03, 25.03, 25.03, 25.03, 25.03, 25.03, 25.03, 25.03, 25.03, 25.03, 25.03, 25.03, 25.03, 25.93, 25.48, 25.48, 25.48, 25.48, 25.03, 25.03, 25.03, 25.03, 24.59, 24.59, 24.59, 24.14, 24.14, 23.69, 23.69, 23.69, 23.25, 22.8, 22.8, 22.35, 21.9, 21.9, 21.46, 21.01, 20.56, 20.56, 20.56, 20.12, 19.67, 19.22, 19.22, 18.78, 18.33, 18.33, 18.33, 18.78, 18.78, 18.78, 18.33, 18.33, 18.33, 18.33, 18.33, 18.33, 18.33, 18.33, 17.88, 17.88, 18.33, 18.33, 16.99, 14.3, 12.96, 12.96, 13.41, 12.96, 12.07, 11.62, 12.52, 12.96, 12.07, 11.18, 10.28, 10.28, 10.28, 10.28, 10.73, 10.73, 11.18, 11.62, 11.62, 11.62, 11.62, 12.07, 12.07, 12.07, 26.37, 26.37, 26.37, 26.37, 26.37, 25.93, 25.93, 25.93, 25.93, 25.93, 25.93, 25.93, 25.93, 25.93, 25.93, 26.37, 26.37, 25.93, 25.93, 26.82, 26.37, 26.37, 26.37, 26.37, 25.93, 25.93, 25.93, 25.48, 25.48, 25.48, 25.48, 25.03, 25.03, 24.59, 24.59, 24.59, 24.14, 23.69, 23.69, 23.25, 23.25, 22.8, 22.35, 22.35, 21.9, 21.46, 21.01, 21.01, 20.56, 20.12, 20.12, 19.67, 19.22, 19.22, 18.78, 18.78, 18.78, 18.78, 18.78, 18.78, 18.78, 18.78, 18.78, 18.33, 18.33, 18.33, 18.78, 18.78, 18.33, 17.88, 18.33, 18.33, 17.88, 15.65, 13.41, 13.41, 13.86, 13.41, 12.52, 12.07, 12.07, 12.52, 12.07, 11.18, 10.73, 10.28, 10.28, 10.28, 10.73, 11.18, 11.62, 11.62, 11.62, 12.07, 11.62, 12.07, 12.52, 12.52, 27.72, 27.72, 27.72, 27.27, 27.27, 27.27, 27.27, 27.27, 27.27, 27.27, 26.82, 26.82, 26.82, 26.82, 26.82, 26.82, 26.82, 27.72, 27.72, 27.27, 27.27, 27.27, 26.82, 26.82, 26.82, 26.37, 26.37, 26.37, 25.93, 25.93, 25.93, 25.48, 25.48, 25.03, 25.03, 24.59, 24.59, 24.14, 24.14, 23.69, 23.25, 23.25, 22.8, 22.35, 21.9, 21.9, 21.46, 21.01, 21.01, 20.56, 20.12, 19.67, 19.67, 19.22, 19.22, 19.22, 18.78, 18.78, 18.78, 18.78, 18.78, 18.78, 18.78, 18.78, 18.33, 18.33, 18.78, 18.78, 18.78, 18.78, 18.33, 18.33, 18.33, 16.54, 14.3, 13.86, 14.3, 13.86, 12.96, 12.52, 12.52, 12.52, 12.07, 11.18, 10.73, 10.28, 10.28, 10.28, 10.73, 11.18, 11.62, 11.62, 12.07, 12.07, 12.52, 12.52, 12.96, 12.96, 28.61, 28.61, 28.61, 28.61, 28.61, 28.16, 28.16, 28.16, 28.16, 28.16, 28.16, 27.72, 27.72, 27.72, 27.72, 27.72, 28.16, 28.16, 28.16, 27.72, 27.72, 27.72, 27.27, 27.27, 27.27, 26.82, 26.82, 26.82, 26.37, 26.37, 25.93, 25.93, 25.93, 25.48, 25.48, 25.03, 25.03, 24.59, 24.14, 24.14, 23.69, 23.25, 22.8, 22.8, 22.35, 21.9, 21.9, 21.46, 21.01, 20.56, 20.56, 20.12, 19.67, 19.67, 19.22, 19.22, 19.22, 19.22, 18.78, 18.78, 19.22, 19.22, 19.22, 18.78, 18.78, 18.78, 18.78, 18.78, 19.22, 19.22, 19.22, 18.78, 18.78, 17.43, 15.65, 14.3, 14.3, 13.86, 13.41, 12.96, 12.96, 12.52, 12.07, 11.18, 10.73, 10.73, 10.28, 10.73, 10.73, 11.18, 11.62, 12.07, 12.07, 12.52, 12.52, 12.52, 12.96, 12.96, 29.95, 29.95, 29.5, 29.5, 29.5, 29.06, 29.06, 29.06, 29.06, 29.06, 28.61, 28.61, 28.61, 28.61, 29.06, 29.06, 29.06, 28.61, 28.61, 28.61, 28.16, 28.16, 28.16, 27.72, 27.72, 27.27, 27.27, 27.27, 26.82, 26.82, 26.37, 26.37, 25.93, 25.93, 25.48, 25.48, 25.03, 24.59, 24.59, 24.14, 23.69, 23.69, 23.25, 22.8, 22.8, 22.35, 21.9, 21.9, 21.46, 21.01, 20.56, 20.56, 20.12, 19.67, 19.67, 19.67, 19.22, 19.22, 19.22, 19.22, 19.22, 19.22, 19.22, 19.22, 18.78, 18.78, 18.78, 19.22, 19.22, 19.67, 19.67, 19.67, 18.78, 17.88, 16.54, 15.2, 14.75, 13.86, 13.41, 13.41, 12.96, 12.52, 12.07, 11.62, 11.18, 10.73, 10.73, 10.73, 10.73, 11.18, 11.62, 12.07, 12.52, 12.52, 12.96, 13.41, 12.96, 12.96, 30.4, 30.4, 30.4, 30.4, 29.95, 29.95, 29.95, 29.95, 29.5, 29.5, 29.5, 29.5, 29.5, 29.95, 29.95, 29.5, 29.5, 29.06, 29.06, 29.06, 28.61, 28.61, 28.16, 28.16, 28.16, 27.72, 27.72, 27.27, 27.27, 26.82, 26.82, 26.37, 26.37, 25.93, 25.93, 25.48, 25.48, 25.03, 24.59, 24.14, 24.14, 23.69, 23.25, 23.25, 22.8, 22.35, 22.35, 21.9, 21.46, 21.01, 21.01, 20.56, 20.12, 20.12, 19.67, 19.67, 19.67, 19.67, 19.22, 19.22, 19.67, 19.22, 19.22, 19.22, 19.22, 19.22, 19.22, 19.22, 19.22, 19.67, 20.12, 20.12, 19.67, 18.33, 16.99, 16.09, 15.2, 13.86, 13.41, 13.41, 13.41, 12.52, 12.07, 11.62, 11.18, 10.73, 10.73, 10.73, 10.73, 11.18, 11.62, 12.07, 12.52, 12.96, 12.96, 13.41, 13.41, 13.41, 31.29, 31.29, 30.84, 30.84, 30.84, 30.84, 30.4, 30.4, 30.4, 29.95, 29.95, 29.95, 30.4, 30.4, 29.95, 29.95, 29.5, 29.5, 29.5, 29.06, 29.06, 29.06, 28.61, 28.61, 28.16, 28.16, 27.72, 27.72, 27.72, 27.27, 26.82, 26.82, 26.37, 26.37, 25.93, 25.93, 25.48, 25.03, 24.59, 24.59, 24.14, 24.14, 23.69, 23.25, 22.8, 22.8, 22.35, 21.9, 21.9, 21.46, 21.01, 21.01, 20.56, 20.12, 20.12, 20.12, 19.67, 19.67, 19.67, 19.67, 19.67, 19.67, 19.67, 19.67, 19.22, 19.22, 19.22, 19.22, 19.67, 20.12, 20.12, 20.56, 20.12, 18.78, 17.43, 16.99, 15.65, 14.3, 13.41, 13.41, 13.41, 12.52, 12.07, 11.62, 10.73, 10.73, 10.28, 10.73, 10.73, 11.18, 11.62, 12.07, 12.52, 12.96, 13.41, 13.41, 13.86, 13.41, 31.74, 31.74, 31.74, 31.29, 31.29, 31.29, 30.84, 30.84, 30.84, 30.4, 30.4, 30.84, 30.4, 30.4, 30.4, 30.4, 29.95, 29.95, 29.5, 29.5, 29.5, 29.06, 29.06, 28.61, 28.61, 28.16, 28.16, 27.72, 27.72, 27.27, 27.27, 26.82, 26.82, 26.37, 25.93, 25.93, 25.48, 25.03, 25.03, 24.59, 24.14, 24.14, 23.69, 23.25, 22.8, 22.8, 22.35, 22.35, 21.9, 21.46, 21.46, 21.01, 20.56, 20.56, 20.12, 20.12, 20.12, 19.67, 19.67, 19.67, 19.67, 19.67, 20.12, 19.67, 19.67, 19.67, 19.67, 19.67, 19.67, 20.12, 20.56, 21.01, 21.01, 20.12, 18.33, 16.99, 16.09, 14.75, 13.86, 13.41, 13.41, 12.52, 11.62, 11.18, 10.73, 10.28, 10.28, 10.28, 10.73, 11.18, 11.62, 12.07, 12.52, 12.96, 13.41, 13.86, 13.86, 13.86, 32.19, 32.19, 31.74, 31.74, 31.74, 31.29, 31.29, 31.29, 30.84, 30.84, 31.29, 30.84, 30.84, 30.84, 30.4, 30.4, 30.4, 30.4, 29.95, 29.5, 29.5, 29.5, 29.06, 29.06, 28.61, 28.61, 28.16, 28.16, 27.72, 27.72, 27.27, 26.82, 26.82, 26.37, 26.37, 25.93, 25.48, 25.03, 25.03, 24.59, 24.59, 24.14, 23.69, 23.69, 22.8, 22.35, 22.8, 22.35, 21.9, 21.46, 21.46, 21.01, 21.01, 20.56, 20.56, 20.12, 20.12, 20.12, 20.12, 20.12, 20.12, 20.12, 20.12, 20.12, 19.67, 19.67, 19.67, 20.12, 20.12, 20.12, 20.56, 21.01, 21.01, 20.56, 19.67, 17.88, 16.54, 15.65, 14.3, 13.86, 13.41, 12.52, 11.62, 11.18, 10.28, 9.83, 9.83, 9.83, 10.28, 11.18, 11.62, 12.07, 12.52, 12.96, 13.41, 13.86, 13.86, 13.86, 32.19, 32.19, 32.19, 32.19, 31.74, 31.74, 31.74, 31.29, 31.29, 31.29, 31.29, 31.29, 31.29, 30.84, 30.84, 30.84, 30.4, 30.4, 29.95, 29.95, 29.5, 29.5, 29.5, 29.06, 29.06, 28.61, 28.16, 28.16, 27.72, 27.72, 27.27, 27.27, 26.82, 26.37, 26.37, 25.93, 25.48, 25.48, 25.03, 24.59, 24.59, 24.14, 23.69, 23.69, 23.25, 22.8, 22.8, 22.35, 21.9, 21.9, 21.46, 21.46, 21.01, 21.01, 20.56, 20.56, 20.56, 20.12, 20.12, 20.12, 20.12, 20.12, 20.56, 20.12, 20.12, 20.12, 20.12, 20.12, 20.12, 20.56, 20.56, 21.01, 21.01, 21.01, 20.56, 18.78, 17.43, 16.09, 15.2, 14.3, 13.41, 12.52, 11.62, 10.73, 10.28, 9.83, 9.83, 9.83, 10.28, 11.18, 11.62, 12.07, 12.52, 12.96, 13.41, 13.86, 13.86, 13.86, 32.63, 32.63, 32.19, 32.19, 32.19, 31.74, 31.74, 31.74, 31.74, 31.74, 31.29, 31.29, 31.29, 31.29, 30.84, 30.84, 30.84, 30.4, 30.4, 29.95, 29.95, 29.5, 29.5, 29.06, 29.06, 28.61, 28.61, 28.16, 27.72, 27.72, 27.27, 27.27, 26.82, 26.37, 26.37, 25.93, 25.48, 25.48, 25.03, 24.59, 24.59, 24.14, 24.14, 23.69, 23.25, 22.8, 22.8, 22.35, 22.35, 21.9, 21.46, 21.46, 21.01, 21.01, 21.01, 20.56, 20.56, 20.56, 20.56, 20.56, 20.56, 20.56, 20.56, 20.56, 20.56, 20.56, 20.56, 20.56, 20.56, 20.56, 20.56, 20.56, 20.56, 20.56, 20.56, 19.67, 18.33, 16.54, 16.09, 15.2, 14.3, 12.52, 11.62, 10.73, 10.28, 9.83, 9.39, 9.83, 10.28, 11.18, 11.62, 12.07, 12.52, 12.96, 13.41, 13.86, 13.86, 13.86, 32.63, 32.63, 32.63, 32.19, 32.19, 32.19, 31.74, 31.74, 31.74, 31.74, 31.74, 31.74, 31.29, 31.29, 31.29, 30.84, 30.84, 30.4, 30.4, 29.95, 29.95, 29.5, 29.5, 29.06, 29.06, 28.61, 28.16, 28.16, 27.72, 27.72, 27.27, 26.82, 26.82, 26.37, 26.37, 25.93, 25.48, 25.48, 25.03, 24.59, 24.59, 24.14, 24.14, 23.69, 23.25, 23.25, 22.8, 22.35, 22.35, 21.9, 21.9, 21.46, 21.46, 21.46, 21.01, 21.01, 21.01, 20.56, 20.56, 20.56, 20.56, 20.56, 20.56, 20.56, 20.56, 20.56, 20.56, 20.56, 20.56, 20.56, 20.56, 20.56, 20.56, 20.56, 20.56, 20.12, 19.22, 17.43, 16.54, 15.65, 14.75, 12.96, 11.62, 10.73, 10.28, 9.39, 9.39, 9.83, 10.28, 11.18, 12.07, 12.07, 12.52, 12.96, 13.41, 13.86, 13.86, 13.86, 32.63, 32.63, 32.63, 32.19, 32.19, 32.19, 32.19, 31.74, 31.74, 31.74, 31.74, 31.74, 31.29, 31.29, 30.84, 30.84, 30.84, 30.4, 30.4, 29.95, 29.5, 29.5, 29.06, 29.06, 28.61, 28.61, 28.16, 28.16, 27.72, 27.27, 27.27, 26.82, 26.82, 26.37, 25.93, 25.93, 25.48, 25.48, 25.03, 24.59, 24.59, 24.14, 24.14, 23.69, 23.25, 23.25, 22.8, 22.8, 22.35, 22.35, 21.9, 21.9, 21.46, 21.46, 21.46, 21.01, 21.01, 21.01, 21.01, 21.01, 21.01, 21.01, 21.01, 21.01, 21.01, 21.01, 21.01, 20.56, 20.56, 20.56, 20.56, 20.56, 20.56, 20.12, 20.12, 20.12, 19.67, 18.33, 17.43, 16.09, 15.2, 13.41, 12.07, 10.73, 9.83, 9.39, 9.39, 9.83, 10.28, 11.18, 12.07, 12.52, 12.52, 12.96, 13.86, 14.3, 14.3, 14.3, 32.63, 32.63, 32.63, 32.19, 32.19, 32.19, 31.74, 31.74, 31.74, 31.74, 31.29, 31.29, 31.29, 30.84, 30.84, 30.84, 30.4, 30.4, 30.4, 29.95, 29.5, 29.5, 29.06, 29.06, 28.61, 28.16, 28.16, 27.72, 27.72, 27.27, 27.27, 26.82, 26.37, 26.37, 25.93, 25.93, 25.48, 25.03, 25.03, 24.59, 24.59, 24.14, 24.14, 23.69, 23.25, 23.25, 22.8, 22.8, 22.35, 22.35, 21.9, 21.9, 21.9, 21.46, 21.46, 21.46, 21.46, 21.01, 21.01, 21.01, 21.01, 21.01, 21.01, 21.01, 21.01, 21.01, 21.01, 20.56, 20.56, 20.56, 20.56, 20.56, 20.56, 20.12, 20.12, 20.12, 19.67, 18.78, 17.88, 16.99, 15.65, 13.41, 12.07, 10.73, 9.83, 9.39, 9.39, 9.83, 10.73, 11.62, 12.07, 12.07, 12.52, 13.41, 13.86, 14.3, 14.3, 14.3, 32.63, 32.63, 32.19, 32.19, 31.74, 31.74, 31.74, 31.74, 31.74, 31.29, 31.29, 31.29, 30.84, 30.84, 30.84, 30.4, 30.4, 30.4, 29.95, 29.95, 29.5, 29.06, 29.06, 28.61, 28.16, 28.16, 27.72, 27.72, 27.27, 27.27, 26.82, 26.82, 26.37, 26.37, 25.93, 25.48, 25.48, 25.03, 25.03, 24.59, 24.59, 24.14, 24.14, 23.69, 23.25, 23.25, 22.8, 22.8, 22.35, 22.35, 22.35, 21.9, 21.9, 21.9, 21.46, 21.46, 21.46, 21.46, 21.46, 21.46, 21.46, 21.46, 21.01, 21.01, 21.01, 21.01, 20.56, 20.56, 20.56, 20.12, 20.56, 20.56, 20.56, 20.12, 20.12, 20.12, 19.67, 19.22, 18.33, 17.88, 16.54, 14.3, 12.07, 10.73, 9.83, 9.39, 9.39, 9.83, 10.73, 12.07, 12.07, 12.52, 12.96, 13.41, 13.86, 14.3, 14.3, 14.3, 32.19, 32.19, 32.19, 31.74, 31.74, 31.29, 31.29, 31.29, 31.29, 31.29, 30.84, 30.84, 30.84, 30.4, 30.4, 30.4, 29.95, 29.95, 29.5, 29.5, 29.06, 29.06, 28.61, 28.16, 28.16, 27.72, 27.72, 27.27, 27.27, 26.82, 26.82, 26.37, 26.37, 25.93, 25.93, 25.48, 25.48, 25.03, 25.03, 24.59, 24.14, 24.14, 23.69, 23.69, 23.25, 23.25, 22.8, 22.8, 22.8, 22.35, 22.35, 22.35, 21.9, 21.9, 21.9, 21.9, 21.9, 21.46, 21.46, 21.46, 21.46, 21.46, 21.46, 21.01, 21.01, 20.56, 20.56, 20.56, 20.56, 20.12, 20.12, 20.56, 20.12, 20.12, 20.12, 20.12, 19.67, 19.67, 18.78, 18.33, 17.43, 15.65, 12.96, 10.73, 9.39, 9.39, 9.39, 9.83, 11.18, 11.62, 12.07, 12.52, 12.96, 13.41, 14.3, 14.3, 14.3, 14.3, 31.74, 31.74, 31.29, 31.29, 31.29, 30.84, 30.84, 30.84, 30.84, 30.84, 30.4, 30.4, 30.4, 30.4, 29.95, 29.95, 29.95, 29.5, 29.5, 29.06, 29.06, 28.61, 28.16, 28.16, 27.72, 27.72, 27.27, 27.27, 26.82, 26.82, 26.37, 26.37, 25.93, 25.93, 25.48, 25.48, 25.03, 25.03, 24.59, 24.59, 24.14, 24.14, 23.69, 23.69, 23.25, 23.25, 22.8, 22.8, 22.8, 22.8, 22.35, 22.35, 22.35, 21.9, 21.9, 21.9, 21.9, 21.9, 21.9, 21.46, 21.46, 21.46, 21.46, 21.01, 21.01, 20.56, 20.56, 20.56, 20.56, 20.12, 20.12, 20.12, 20.56, 20.12, 20.12, 20.12, 19.67, 19.67, 19.22, 18.78, 17.88, 16.99, 14.75, 11.18, 9.39, 9.83, 9.83, 10.73, 11.18, 11.62, 12.07, 12.52, 12.96, 13.86, 14.3, 14.75, 14.75, 14.75, 31.29, 30.84, 30.84, 30.84, 30.84, 30.4, 30.4, 30.4, 30.4, 30.4, 30.4, 29.95, 29.95, 29.95, 29.5, 29.5, 29.5, 29.06, 29.06, 29.06, 28.61, 28.16, 28.16, 27.72, 27.72, 27.27, 27.27, 26.82, 26.82, 26.37, 26.37, 26.37, 25.93, 25.48, 25.48, 25.03, 25.03, 25.03, 24.59, 24.59, 24.14, 24.14, 23.69, 23.69, 23.25, 23.25, 23.25, 22.8, 22.8, 22.8, 22.35, 22.35, 22.35, 21.9, 21.9, 21.9, 21.9, 21.9, 21.9, 21.46, 21.46, 21.46, 21.01, 21.01, 21.01, 20.56, 20.56, 20.56, 20.12, 20.12, 20.12, 20.12, 20.56, 20.56, 20.12, 20.12, 20.12, 19.67, 19.67, 18.78, 18.33, 17.88, 16.54, 12.96, 10.28, 9.83, 10.28, 10.73, 11.18, 11.18, 12.07, 12.96, 13.41, 13.86, 14.3, 14.75, 14.75, 14.75, 30.84, 30.4, 30.4, 30.4, 29.95, 29.95, 29.95, 29.95, 29.95, 29.95, 29.95, 29.5, 29.5, 29.5, 29.5, 29.06, 29.06, 29.06, 28.61, 28.61, 28.16, 28.16, 27.72, 27.72, 27.27, 27.27, 26.82, 26.82, 26.37, 26.37, 26.37, 25.93, 25.93, 25.48, 25.48, 25.03, 25.03, 24.59, 24.59, 24.14, 24.14, 23.69, 23.69, 23.69, 23.25, 23.25, 23.25, 22.8, 22.8, 22.8, 22.8, 22.35, 22.35, 22.35, 21.9, 21.9, 21.9, 21.9, 21.46, 21.46, 21.46, 21.01, 21.01, 21.01, 20.56, 20.56, 20.56, 20.56, 20.56, 20.56, 20.56, 20.12, 20.12, 20.56, 20.56, 20.12, 20.12, 19.67, 19.67, 19.22, 18.78, 18.33, 17.43, 14.3, 10.73, 10.28, 10.73, 11.18, 12.07, 11.62, 12.07, 12.96, 13.86, 14.3, 14.75, 15.2, 15.2, 15.2, 29.95, 29.95, 29.95, 29.5, 29.5, 29.5, 29.5, 29.5, 29.5, 29.5, 29.5, 29.06, 29.06, 29.06, 29.06, 28.61, 28.61, 28.61, 28.16, 28.16, 28.16, 27.72, 27.27, 27.27, 26.82, 26.82, 26.82, 26.37, 26.37, 25.93, 25.93, 25.48, 25.48, 25.48, 25.03, 25.03, 24.59, 24.59, 24.59, 24.14, 24.14, 23.69, 23.69, 23.25, 23.25, 23.25, 23.25, 22.8, 22.8, 22.8, 22.8, 22.35, 22.35, 22.35, 21.9, 21.9, 21.9, 21.9, 21.46, 21.46, 21.46, 21.01, 21.01, 21.01, 20.56, 20.56, 20.56, 20.56, 20.56, 20.56, 20.56, 20.56, 20.56, 20.56, 20.56, 20.12, 20.12, 20.12, 19.67, 19.22, 19.22, 18.78, 17.88, 12.07, 11.18, 10.73, 10.73, 11.62, 12.52, 12.52, 12.07, 12.96, 13.86, 14.3, 14.75, 15.2, 15.2, 15.2, 29.5, 29.5, 29.06, 29.06, 29.06, 29.06, 29.06, 29.06, 29.06, 29.06, 29.06, 28.61, 28.61, 28.61, 28.61, 28.16, 28.16, 28.16, 27.72, 27.72, 27.72, 27.27, 27.27, 26.82, 26.82, 26.37, 26.37, 26.37, 25.93, 25.93, 25.48, 25.48, 25.03, 25.03, 25.03, 24.59, 24.59, 24.59, 24.14, 24.14, 23.69, 23.69, 23.69, 23.25, 23.25, 23.25, 23.25, 22.8, 22.8, 22.8, 22.8, 22.35, 22.35, 21.9, 21.9, 21.9, 21.9, 21.46, 21.46, 21.46, 21.01, 21.01, 21.01, 21.01, 21.01, 21.01, 21.01, 21.01, 21.01, 21.01, 21.01, 20.56, 20.56, 20.56, 20.56, 20.56, 20.12, 20.12, 19.67, 19.67, 19.67, 19.22, 16.09, 12.52, 10.73, 10.73, 10.73, 11.62, 12.52, 12.96, 12.52, 12.96, 13.86, 14.3, 15.2, 15.2, 15.2, 15.2, 28.61, 28.61, 28.61, 28.61, 28.61, 28.61, 28.61, 28.61, 28.61, 28.61, 28.61, 28.16, 28.16, 28.16, 28.16, 27.72, 27.72, 27.72, 27.72, 27.27, 27.27, 27.27, 26.82, 26.82, 26.37, 26.37, 25.93, 25.93, 25.93, 25.48, 25.48, 25.03, 25.03, 25.03, 24.59, 24.59, 24.14, 24.14, 24.14, 23.69, 23.69, 23.69, 23.25, 23.25, 23.25, 23.25, 22.8, 22.8, 22.8, 22.8, 22.35, 22.35, 22.35, 21.9, 21.9, 21.9, 21.46, 21.46, 21.46, 21.01, 21.01, 21.01, 21.01, 21.01, 21.01, 21.01, 21.01, 21.01, 21.01, 21.01, 21.01, 21.01, 21.01, 20.56, 20.56, 20.56, 20.56, 20.12, 20.12, 19.67, 19.67, 19.67, 16.99, 12.96, 10.28, 10.28, 11.18, 11.62, 12.52, 12.96, 12.52, 12.96, 13.86, 14.3, 15.2, 15.2, 15.2, 15.2, 28.16, 28.16, 28.16, 28.16, 28.16, 28.16, 28.16, 28.16, 28.16, 28.16, 28.16, 27.72, 27.72, 27.72, 27.72, 27.72, 27.27, 27.27, 27.27, 26.82, 26.82, 26.82, 26.37, 26.37, 25.93, 25.93, 25.93, 25.48, 25.48, 25.48, 25.03, 25.03, 24.59, 24.59, 24.59, 24.14, 24.14, 24.14, 23.69, 23.69, 23.69, 23.69, 23.25, 23.25, 23.25, 23.25, 22.8, 22.8, 22.8, 22.8, 22.35, 22.35, 21.9, 21.9, 21.9, 21.46, 21.46, 21.46, 21.46, 21.46, 21.01, 21.01, 21.01, 21.01, 21.01, 21.01, 21.01, 21.01, 21.46, 21.01, 21.01, 21.01, 21.01, 21.01, 20.56, 20.56, 20.56, 20.56, 20.12, 20.12, 20.12, 19.22, 17.88, 14.75, 10.73, 10.73, 11.62, 11.62, 12.52, 12.52, 12.52, 12.96, 13.41, 14.3, 14.75, 15.2, 15.2, 15.2, 27.72, 27.72, 27.72, 27.72, 27.72, 27.72, 27.72, 27.72, 27.72, 27.72, 27.72, 27.27, 27.27, 27.27, 27.27, 27.27, 26.82, 26.82, 26.82, 26.82, 26.37, 26.37, 26.37, 25.93, 25.93, 25.48, 25.48, 25.48, 25.03, 25.03, 25.03, 24.59, 24.59, 24.59, 24.14, 24.14, 24.14, 23.69, 23.69, 23.69, 23.69, 23.25, 23.25, 23.25, 23.25, 22.8, 22.8, 22.8, 22.8, 22.35, 22.35, 21.9, 21.9, 21.9, 21.46, 21.46, 21.46, 21.46, 21.46, 21.46, 21.46, 21.46, 21.46, 21.46, 21.46, 21.46, 21.46, 21.46, 21.46, 21.46, 21.46, 21.01, 21.01, 21.01, 20.56, 20.56, 20.56, 20.56, 20.56, 20.12, 20.12, 19.67, 18.78, 16.54, 12.52, 11.62, 12.07, 12.07, 12.07, 12.52, 12.52, 12.96, 13.41, 14.3, 14.75, 15.2, 15.2, 15.2, 27.27, 27.27, 27.27, 27.27, 27.27, 27.27, 27.27, 27.27, 27.27, 27.27, 27.27, 27.27, 26.82, 26.82, 26.82, 26.82, 26.82, 26.37, 26.37, 26.37, 26.37, 25.93, 25.93, 25.48, 25.48, 25.48, 25.03, 25.03, 25.03, 24.59, 24.59, 24.59, 24.14, 24.14, 24.14, 24.14, 23.69, 23.69, 23.69, 23.69, 23.25, 23.25, 23.25, 23.25, 22.8, 22.8, 22.8, 22.8, 22.35, 22.35, 22.35, 21.9, 21.9, 21.9, 21.9, 21.46, 21.46, 21.46, 21.46, 21.46, 21.46, 21.46, 21.46, 21.46, 21.46, 21.46, 21.46, 21.46, 21.46, 21.46, 21.46, 21.01, 21.01, 21.01, 20.56, 20.56, 20.56, 20.56, 20.56, 20.56, 20.12, 20.12, 19.22, 17.88, 14.75, 12.96, 12.96, 12.96, 12.52, 12.07, 12.52, 12.96, 13.41, 14.3, 15.2, 15.2, 15.2, 15.2, 26.82, 26.82, 26.82, 26.82, 26.82, 26.82, 26.82, 26.82, 26.82, 26.82, 26.82, 26.82, 26.82, 26.37, 26.37, 26.37, 26.37, 26.37, 25.93, 25.93, 25.93, 25.93, 25.48, 25.48, 25.03, 25.03, 25.03, 24.59, 24.59, 24.59, 24.59, 24.14, 24.14, 24.14, 24.14, 23.69, 23.69, 23.69, 23.69, 23.25, 23.25, 23.25, 23.25, 22.8, 22.8, 22.8, 22.8, 22.35, 22.35, 22.35, 22.35, 21.9, 21.9, 21.9, 21.9, 21.9, 21.9, 21.9, 21.9, 21.9, 21.9, 21.9, 21.9, 21.9, 21.9, 21.9, 21.46, 21.46, 21.46, 21.46, 21.46, 21.46, 21.01, 21.01, 21.01, 20.56, 20.56, 20.56, 20.56, 20.56, 20.56, 20.12, 19.67, 18.78, 16.54, 14.3, 13.86, 13.41, 12.96, 12.52, 12.52, 12.96, 13.86, 14.3, 15.2, 15.2, 15.2, 15.2, 26.82, 26.82, 26.82, 26.82, 26.37, 26.37, 26.37, 26.37, 26.37, 26.37, 26.37, 26.37, 26.37, 26.37, 25.93, 25.93, 25.93, 25.93, 25.93, 25.48, 25.48, 25.48, 25.48, 25.03, 25.03, 25.03, 24.59, 24.59, 24.59, 24.14, 24.14, 24.14, 24.14, 23.69, 23.69, 23.69, 23.69, 23.69, 23.25, 23.25, 23.25, 23.25, 23.25, 22.8, 22.8, 22.8, 22.8, 22.35, 22.35, 22.35, 22.35, 22.35, 21.9, 21.9, 21.9, 21.9, 21.9, 21.9, 21.9, 21.9, 21.9, 21.9, 21.9, 21.9, 21.9, 21.9, 21.9, 21.46, 21.46, 21.46, 21.46, 21.46, 21.01, 21.01, 21.01, 21.01, 20.56, 20.56, 20.56, 21.01, 20.56, 20.56, 20.12, 19.22, 17.88, 15.65, 14.75, 13.86, 12.96, 12.52, 12.52, 13.41, 13.86, 14.75, 15.2, 15.2, 15.2, 15.2, 26.37, 26.37, 26.37, 26.37, 26.37, 26.37, 26.37, 26.37, 26.37, 25.93, 25.93, 25.93, 25.93, 25.93, 25.93, 25.93, 25.48, 25.48, 25.48, 25.48, 25.03, 25.03, 25.03, 25.03, 24.59, 24.59, 24.59, 24.14, 24.14, 24.14, 24.14, 24.14, 23.69, 23.69, 23.69, 23.69, 23.69, 23.25, 23.25, 23.25, 23.25, 23.25, 22.8, 22.8, 22.8, 22.8, 22.8, 22.35, 22.35, 22.35, 22.35, 22.35, 22.35, 22.35, 22.35, 22.35, 22.35, 22.35, 21.9, 21.9, 21.9, 21.9, 21.9, 21.9, 21.9, 21.9, 21.9, 21.46, 21.46, 21.46, 21.46, 21.46, 21.01, 21.01, 21.01, 21.01, 21.01, 21.01, 21.01, 21.01, 21.01, 20.56, 20.56, 19.67, 18.78, 17.43, 16.09, 14.75, 13.86, 12.96, 12.52, 13.41, 13.86, 14.75, 15.2, 15.65, 15.65, 15.65, 26.37, 26.37, 26.37, 26.37, 26.37, 26.37, 26.37, 26.37, 26.37, 25.93, 25.93, 25.93, 25.93, 25.93, 25.93, 25.93, 25.48, 25.48, 25.48, 25.48, 25.03, 25.03, 25.03, 25.03, 24.59, 24.59, 24.59, 24.14, 24.14, 24.14, 24.14, 24.14, 23.69, 23.69, 23.69, 23.69, 23.69, 23.25, 23.25, 23.25, 23.25, 23.25, 22.8, 22.8, 22.8, 22.8, 22.8, 22.35, 22.35, 22.35, 22.35, 22.35, 22.35, 22.35, 22.35, 22.35, 22.35, 22.35, 21.9, 21.9, 21.9, 21.9, 21.9, 21.9, 21.9, 21.9, 21.9, 21.46, 21.46, 21.46, 21.46, 21.46, 21.01, 21.01, 21.01, 21.01, 20.56, 21.01, 21.01, 21.01, 21.01, 21.01, 20.56, 20.12, 19.67, 18.33, 16.99, 16.09, 14.75, 13.41, 12.96, 13.41, 13.86, 14.75, 15.2, 15.65, 15.65, 15.65]}, {"header": {"parameterCategory": 1, "parameterNumber": 3, "dx": 0.06612293990616946, "dy": 0.0552356325346848, "nx": 98, "ny": 59, "la1": 35.046912555036876, "la2": 31.78801023549047, "lo1": -121.43107172385933, "lo2": -114.95102361305473, "refTime": "2026041110"}, "data": [3.13, 3.13, 3.58, 4.02, 4.02, 4.47, 4.92, 4.92, 5.36, 5.36, 5.81, 5.81, 5.81, 6.26, 6.71, 7.15, 7.15, 7.6, 8.05, 8.49, 8.49, 8.94, 9.83, 10.28, 10.73, 11.18, 11.18, 11.62, 12.07, 12.07, 12.52, 12.96, 13.41, 13.86, 14.3, 14.3, 14.75, 15.2, 15.65, 16.09, 16.54, 16.99, 17.43, 17.88, 17.88, 18.33, 18.33, 17.43, 16.09, 15.65, 16.09, 16.54, 16.99, 17.43, 17.88, 18.33, 18.33, 17.88, 17.88, 17.88, 17.88, 17.88, 17.88, 17.88, 17.43, 16.99, 16.54, 16.09, 16.09, 16.09, 16.99, 17.88, 18.33, 18.78, 19.22, 19.22, 19.67, 19.67, 19.67, 19.67, 20.12, 20.56, 21.46, 21.9, 22.35, 22.8, 22.8, 23.25, 23.25, 23.25, 23.25, 23.25, 23.25, 23.25, 23.25, 23.25, 22.8, 22.8, 3.13, 3.13, 3.58, 4.02, 4.02, 4.47, 4.92, 4.92, 5.36, 5.36, 5.36, 5.81, 5.81, 6.26, 6.71, 7.15, 7.6, 7.6, 8.05, 8.49, 8.49, 8.94, 9.39, 9.83, 10.73, 11.18, 11.62, 11.62, 12.07, 12.07, 12.52, 12.96, 13.86, 13.86, 14.3, 14.75, 15.2, 15.65, 15.65, 16.09, 16.54, 16.99, 17.43, 17.88, 17.88, 18.33, 18.33, 16.99, 15.2, 14.75, 14.75, 15.2, 16.54, 17.43, 17.88, 18.33, 18.33, 18.33, 17.88, 17.88, 17.88, 17.88, 17.88, 17.43, 17.43, 16.99, 16.09, 16.09, 16.09, 16.09, 16.99, 17.43, 17.88, 18.33, 18.78, 18.78, 19.22, 19.67, 19.67, 19.67, 20.12, 20.56, 21.46, 21.9, 22.35, 22.8, 22.8, 23.25, 23.25, 23.25, 23.25, 23.25, 23.25, 23.25, 23.25, 23.25, 22.8, 22.8, 3.13, 3.13, 3.58, 4.02, 4.02, 4.47, 4.92, 4.92, 4.92, 5.36, 5.36, 5.81, 6.26, 6.26, 6.71, 7.15, 7.6, 7.6, 8.05, 8.49, 8.94, 8.94, 9.39, 9.83, 10.28, 10.73, 11.62, 11.62, 12.07, 12.52, 12.52, 12.96, 13.41, 13.86, 14.3, 14.75, 15.2, 15.65, 16.09, 16.54, 16.54, 16.99, 17.43, 17.88, 17.88, 18.33, 18.33, 17.43, 15.2, 13.86, 13.86, 15.65, 16.99, 17.88, 18.33, 18.33, 18.33, 18.33, 18.33, 17.88, 17.88, 17.88, 17.88, 17.43, 17.43, 16.99, 16.09, 15.65, 15.65, 16.09, 16.54, 16.99, 17.43, 17.88, 18.33, 18.33, 18.33, 19.22, 19.22, 19.22, 19.67, 20.12, 21.01, 21.9, 21.9, 22.35, 22.8, 22.8, 22.8, 23.25, 23.25, 23.25, 23.25, 23.25, 23.25, 22.8, 22.8, 22.8, 3.13, 3.13, 3.58, 4.02, 4.02, 4.47, 4.92, 4.92, 4.92, 5.36, 5.36, 5.81, 6.26, 6.26, 6.71, 7.15, 7.6, 8.05, 8.05, 8.49, 8.94, 9.39, 9.39, 9.83, 9.83, 10.28, 11.18, 11.62, 12.07, 12.52, 12.52, 12.52, 12.96, 12.96, 13.41, 13.86, 14.75, 15.2, 16.09, 16.54, 16.99, 17.43, 17.88, 17.88, 18.33, 18.33, 18.33, 17.88, 16.54, 15.65, 15.65, 16.99, 17.88, 17.88, 18.33, 18.33, 18.33, 18.33, 18.33, 18.33, 17.88, 17.88, 17.88, 17.43, 17.43, 16.99, 16.09, 15.65, 15.2, 15.2, 15.65, 16.09, 16.54, 17.43, 17.88, 17.88, 18.33, 18.33, 18.78, 18.78, 19.22, 20.12, 21.01, 21.46, 21.9, 21.9, 22.35, 22.35, 22.8, 22.8, 22.8, 22.8, 22.8, 22.8, 22.8, 22.8, 22.8, 22.8, 3.13, 3.13, 3.58, 4.02, 4.02, 4.47, 4.92, 4.92, 5.36, 5.36, 5.81, 5.81, 6.26, 6.71, 6.71, 7.15, 7.6, 8.05, 8.49, 8.49, 8.94, 9.39, 9.39, 9.83, 10.28, 10.28, 10.73, 11.18, 11.62, 12.07, 12.52, 12.52, 12.96, 12.96, 13.41, 13.86, 14.3, 15.2, 16.09, 16.54, 16.99, 17.43, 17.88, 17.88, 18.33, 18.33, 18.33, 18.33, 17.88, 17.43, 17.43, 17.88, 18.33, 18.33, 18.33, 18.33, 18.78, 18.33, 18.33, 18.33, 17.88, 17.88, 17.43, 17.43, 17.43, 16.99, 16.09, 15.65, 14.75, 14.3, 13.86, 14.3, 15.2, 16.09, 16.99, 17.88, 18.33, 18.33, 18.33, 18.78, 19.22, 19.67, 20.56, 21.01, 21.46, 21.9, 21.9, 22.35, 22.35, 22.35, 22.35, 22.8, 22.8, 22.8, 22.8, 22.8, 22.8, 22.35, 3.13, 3.13, 3.58, 4.02, 4.02, 4.47, 4.92, 4.92, 5.36, 5.36, 5.81, 5.81, 6.26, 6.71, 7.15, 7.15, 7.6, 8.05, 8.49, 8.94, 8.94, 9.39, 9.39, 9.83, 9.83, 10.28, 10.28, 10.73, 10.73, 11.62, 12.07, 12.52, 13.41, 13.41, 13.86, 14.3, 14.75, 15.2, 16.09, 16.99, 17.43, 17.43, 17.43, 17.88, 17.88, 18.33, 18.33, 18.33, 18.33, 18.33, 18.33, 18.33, 18.33, 18.33, 18.78, 18.33, 18.33, 18.33, 18.33, 17.88, 17.88, 17.88, 17.43, 17.43, 16.99, 16.99, 16.54, 15.65, 15.2, 14.3, 13.41, 12.96, 13.86, 15.2, 16.54, 17.43, 18.33, 18.33, 18.33, 18.33, 18.78, 19.67, 20.56, 21.01, 21.01, 21.46, 21.9, 21.9, 22.35, 22.35, 22.35, 22.35, 22.35, 22.8, 22.8, 22.8, 22.35, 22.35, 3.13, 3.58, 3.58, 4.02, 4.02, 4.47, 4.47, 4.92, 5.36, 5.36, 5.81, 6.26, 6.71, 6.71, 7.15, 7.6, 8.05, 8.05, 8.49, 8.94, 9.39, 9.39, 9.83, 9.83, 10.28, 10.28, 10.73, 10.73, 11.18, 11.62, 12.07, 12.52, 12.96, 13.41, 14.3, 14.75, 14.75, 15.2, 16.09, 16.54, 17.43, 17.43, 17.88, 17.88, 17.88, 18.33, 18.33, 18.33, 18.33, 18.33, 18.78, 18.78, 18.78, 18.78, 18.78, 18.78, 18.33, 18.33, 18.33, 17.88, 17.88, 17.43, 17.43, 16.99, 16.99, 16.54, 16.54, 16.09, 15.65, 14.75, 13.86, 13.41, 13.86, 15.2, 16.09, 17.43, 17.88, 18.33, 17.88, 17.88, 18.78, 19.67, 20.12, 20.56, 21.01, 21.46, 21.46, 21.9, 21.9, 21.9, 22.35, 22.35, 22.35, 22.35, 22.35, 22.35, 22.35, 22.35, 3.13, 3.58, 3.58, 4.02, 4.02, 4.47, 4.47, 4.92, 5.36, 5.36, 5.81, 6.26, 6.71, 6.71, 7.15, 7.6, 8.05, 8.49, 8.49, 8.94, 9.39, 9.83, 9.83, 10.28, 10.73, 10.73, 11.18, 11.18, 11.62, 11.62, 12.07, 12.52, 12.96, 13.41, 14.3, 14.75, 15.2, 15.65, 16.09, 16.54, 17.43, 17.88, 17.88, 18.33, 18.33, 18.33, 18.33, 18.33, 18.33, 18.78, 18.78, 18.78, 18.78, 18.78, 18.78, 18.33, 18.33, 18.33, 18.33, 17.88, 17.43, 16.99, 16.99, 16.99, 16.99, 16.54, 16.54, 16.54, 16.09, 15.65, 14.75, 14.3, 14.3, 15.2, 16.54, 16.99, 17.43, 17.43, 17.43, 17.43, 17.88, 19.22, 19.67, 20.12, 20.56, 21.01, 21.46, 21.9, 21.9, 21.9, 21.9, 22.35, 22.35, 22.35, 22.35, 22.35, 22.35, 22.35, 3.13, 3.58, 3.58, 4.02, 4.02, 4.47, 4.47, 4.92, 5.36, 5.36, 5.81, 6.26, 6.71, 7.15, 7.15, 7.6, 8.05, 8.49, 8.94, 8.94, 9.39, 9.83, 10.28, 10.28, 10.73, 11.18, 11.62, 11.62, 12.07, 12.07, 12.52, 12.96, 13.41, 13.86, 14.3, 14.75, 15.65, 16.09, 16.09, 16.54, 17.43, 17.88, 18.33, 18.33, 18.78, 18.78, 18.33, 18.33, 18.78, 18.78, 18.78, 18.78, 18.78, 18.33, 18.33, 18.33, 17.88, 17.88, 17.43, 17.43, 16.99, 16.54, 16.54, 16.54, 16.54, 16.54, 16.54, 16.54, 16.54, 16.09, 15.2, 13.86, 13.86, 15.2, 16.09, 16.54, 16.54, 16.09, 16.09, 16.54, 17.43, 18.33, 19.22, 19.67, 20.56, 21.01, 21.46, 21.9, 21.9, 21.9, 21.9, 21.9, 22.35, 22.35, 22.35, 22.35, 22.35, 22.35, 3.13, 3.58, 3.58, 4.02, 4.02, 4.47, 4.47, 4.92, 5.36, 5.36, 5.81, 6.26, 6.71, 7.15, 7.6, 7.6, 8.05, 8.49, 8.94, 9.39, 9.39, 9.83, 10.28, 10.73, 10.73, 11.18, 11.62, 11.62, 12.07, 12.52, 12.96, 13.41, 13.86, 14.3, 14.3, 14.75, 15.2, 16.09, 16.54, 16.99, 17.43, 17.88, 17.88, 18.33, 18.78, 18.78, 18.78, 18.78, 18.78, 18.33, 18.33, 17.88, 17.88, 17.43, 17.43, 17.43, 16.99, 16.99, 16.54, 16.54, 16.09, 16.09, 16.09, 16.54, 16.09, 16.09, 16.54, 16.54, 16.54, 16.09, 14.75, 13.41, 12.96, 13.86, 15.2, 15.65, 15.65, 15.65, 15.2, 15.65, 16.99, 17.88, 18.78, 19.67, 20.12, 20.56, 21.46, 21.9, 21.9, 21.9, 21.9, 21.9, 22.35, 22.35, 22.35, 22.35, 22.35, 22.35, 3.13, 3.58, 4.02, 4.02, 4.47, 4.47, 4.92, 4.92, 5.36, 5.81, 5.81, 6.26, 6.71, 7.15, 7.6, 8.05, 8.05, 8.49, 8.94, 9.39, 9.83, 10.28, 10.28, 10.73, 11.18, 11.18, 11.62, 12.07, 12.07, 12.52, 12.96, 13.41, 13.86, 14.3, 14.75, 14.75, 15.2, 16.09, 16.54, 16.99, 17.43, 17.88, 17.88, 18.33, 18.78, 18.78, 18.78, 18.78, 18.78, 18.33, 17.88, 17.43, 16.99, 16.09, 15.65, 15.65, 15.65, 15.65, 16.09, 16.09, 15.65, 15.65, 16.09, 16.09, 15.65, 15.65, 15.65, 15.65, 16.09, 15.65, 14.3, 12.52, 12.07, 13.41, 14.75, 15.65, 15.65, 15.2, 15.2, 15.65, 16.99, 17.88, 18.33, 19.22, 20.12, 20.56, 21.46, 21.9, 21.9, 22.35, 22.35, 22.35, 22.35, 22.35, 22.35, 22.35, 22.35, 22.35, 3.13, 3.58, 4.02, 4.02, 4.47, 4.47, 4.92, 4.92, 5.36, 5.81, 6.26, 6.26, 6.71, 7.15, 7.6, 8.05, 8.49, 8.49, 8.94, 9.39, 9.83, 10.28, 10.73, 10.73, 11.18, 11.62, 11.62, 12.07, 12.52, 12.96, 13.41, 13.86, 14.3, 14.75, 15.2, 15.2, 15.65, 16.09, 16.54, 16.99, 16.99, 17.43, 17.88, 18.33, 18.33, 18.33, 18.78, 18.78, 18.78, 18.33, 18.33, 18.33, 17.43, 16.54, 15.65, 15.2, 14.75, 14.75, 15.65, 16.09, 15.65, 15.65, 15.65, 15.65, 15.2, 14.75, 14.3, 13.86, 13.86, 13.41, 12.96, 12.52, 12.07, 13.41, 14.75, 15.65, 15.65, 15.2, 15.65, 16.09, 16.99, 17.88, 18.33, 19.22, 19.67, 20.56, 21.01, 21.9, 21.9, 22.35, 22.35, 22.35, 22.35, 22.35, 22.35, 22.35, 22.35, 22.35, 3.13, 3.58, 4.02, 4.02, 4.47, 4.47, 4.92, 5.36, 5.36, 5.81, 6.26, 6.71, 6.71, 7.15, 7.6, 8.05, 8.49, 8.49, 8.94, 9.39, 9.83, 10.28, 10.28, 10.73, 11.18, 11.62, 12.07, 12.07, 12.52, 12.96, 13.41, 13.86, 14.3, 14.75, 15.2, 15.65, 16.09, 16.09, 16.54, 16.99, 16.99, 17.43, 17.43, 17.88, 18.33, 18.33, 18.78, 18.78, 18.78, 18.78, 18.78, 18.78, 18.78, 18.33, 17.88, 17.43, 16.99, 15.65, 15.2, 16.09, 16.54, 16.09, 15.65, 15.2, 15.2, 14.75, 14.3, 12.96, 12.07, 11.62, 12.07, 12.07, 12.52, 13.86, 15.2, 15.65, 15.65, 15.2, 15.65, 16.54, 17.43, 17.88, 18.33, 18.78, 19.67, 20.12, 21.01, 21.46, 21.9, 22.35, 22.35, 22.35, 22.35, 22.35, 22.35, 22.35, 22.35, 21.9, 3.13, 3.58, 4.02, 4.02, 4.47, 4.47, 4.92, 5.36, 5.36, 5.81, 6.26, 6.71, 7.15, 7.15, 7.6, 8.05, 8.49, 8.49, 8.94, 9.39, 9.83, 10.28, 10.73, 10.73, 11.18, 11.62, 12.07, 12.07, 12.52, 12.96, 13.41, 13.86, 14.3, 14.75, 15.2, 15.2, 15.65, 16.09, 16.54, 16.99, 16.99, 17.43, 17.43, 17.88, 18.33, 18.33, 18.33, 18.78, 18.78, 18.78, 18.78, 18.78, 18.78, 19.22, 19.22, 19.22, 18.78, 17.88, 16.99, 16.54, 16.99, 16.99, 16.54, 16.09, 16.09, 16.09, 15.65, 15.2, 13.86, 12.96, 12.52, 12.96, 12.96, 14.3, 15.2, 15.65, 15.65, 15.65, 16.09, 16.99, 17.43, 17.88, 18.33, 18.78, 19.67, 20.12, 20.56, 21.01, 21.46, 21.9, 22.35, 22.35, 22.35, 22.35, 22.35, 22.35, 22.35, 21.9, 3.13, 3.58, 4.02, 4.02, 4.47, 4.92, 4.92, 5.36, 5.81, 5.81, 6.26, 6.71, 7.15, 7.15, 7.6, 8.05, 8.49, 8.49, 8.94, 9.39, 9.83, 10.28, 10.73, 10.73, 11.18, 11.62, 12.07, 12.52, 12.52, 12.96, 13.41, 13.86, 14.3, 14.75, 14.75, 15.2, 15.65, 16.09, 16.54, 16.54, 16.99, 17.43, 17.43, 17.88, 17.88, 18.33, 18.33, 18.33, 18.78, 18.78, 18.78, 18.78, 18.78, 19.22, 19.67, 19.67, 19.67, 19.22, 18.78, 17.88, 17.88, 18.33, 18.33, 17.88, 17.43, 17.43, 17.43, 17.43, 16.54, 15.65, 14.75, 14.75, 14.3, 14.75, 15.65, 15.65, 15.65, 15.65, 16.09, 16.99, 17.43, 17.88, 18.33, 18.78, 19.22, 19.67, 20.12, 20.56, 20.56, 21.01, 21.9, 22.35, 22.35, 22.35, 22.35, 22.35, 21.9, 21.9, 3.13, 3.58, 4.02, 4.02, 4.47, 4.92, 4.92, 5.36, 5.81, 5.81, 6.26, 6.71, 7.15, 7.15, 7.6, 8.05, 8.49, 8.49, 8.94, 9.39, 9.83, 10.28, 10.28, 10.73, 11.18, 11.62, 12.07, 12.52, 12.52, 12.96, 13.41, 13.86, 14.3, 14.3, 14.75, 15.2, 15.65, 15.65, 16.09, 16.54, 16.99, 16.99, 17.43, 17.43, 17.88, 17.88, 18.33, 18.33, 18.33, 18.78, 18.78, 18.78, 18.78, 18.78, 19.22, 19.22, 19.22, 19.22, 19.22, 18.78, 18.78, 18.78, 18.78, 18.33, 18.33, 18.33, 18.78, 18.33, 17.88, 16.99, 16.54, 16.09, 15.65, 15.2, 15.2, 15.2, 15.2, 15.2, 16.09, 16.54, 16.99, 17.43, 17.88, 18.33, 18.78, 19.67, 20.12, 20.12, 20.12, 20.56, 21.01, 22.35, 22.35, 22.35, 22.35, 21.9, 21.9, 21.9, 3.13, 3.58, 3.58, 4.02, 4.47, 4.92, 4.92, 5.36, 5.81, 5.81, 6.26, 6.71, 6.71, 7.15, 7.6, 8.05, 8.05, 8.49, 8.94, 9.39, 9.83, 9.83, 10.28, 10.73, 11.18, 11.62, 12.07, 12.52, 12.52, 12.96, 13.41, 13.86, 13.86, 14.3, 14.75, 14.75, 15.2, 15.65, 15.65, 16.09, 16.54, 16.99, 16.99, 16.99, 17.43, 17.43, 17.88, 17.88, 18.33, 18.33, 18.33, 18.78, 18.78, 18.78, 18.78, 18.78, 18.78, 18.78, 18.78, 18.78, 18.78, 18.33, 18.33, 18.33, 18.33, 18.33, 18.33, 18.78, 18.33, 17.88, 17.43, 16.99, 16.99, 16.09, 15.2, 14.75, 14.75, 14.75, 15.2, 16.09, 16.09, 16.54, 16.99, 17.43, 18.33, 18.78, 19.67, 20.12, 20.12, 20.56, 21.01, 21.46, 21.9, 21.9, 21.9, 21.9, 21.9, 21.9, 3.13, 3.13, 3.58, 4.02, 4.47, 4.47, 4.92, 5.36, 5.81, 5.81, 6.26, 6.71, 6.71, 7.15, 7.6, 8.05, 8.05, 8.49, 8.94, 9.39, 9.83, 9.83, 10.28, 10.73, 11.18, 11.62, 12.07, 12.52, 12.52, 12.96, 13.41, 13.86, 13.86, 14.3, 14.75, 14.75, 15.2, 15.2, 15.65, 16.09, 16.09, 16.54, 16.54, 16.99, 16.99, 17.43, 17.43, 17.43, 17.88, 17.88, 17.88, 17.88, 17.88, 17.88, 18.33, 18.33, 18.33, 18.33, 18.33, 18.33, 18.33, 18.33, 17.88, 17.88, 17.88, 17.88, 18.33, 18.33, 18.33, 18.33, 17.88, 17.43, 16.99, 16.09, 15.2, 14.75, 14.3, 14.3, 14.75, 14.75, 15.2, 15.65, 16.09, 17.43, 18.33, 18.78, 19.22, 19.67, 20.12, 20.12, 20.12, 21.01, 21.46, 21.46, 21.46, 21.46, 21.46, 21.46, 2.68, 3.13, 3.58, 4.02, 4.02, 4.47, 4.92, 5.36, 5.81, 5.81, 6.26, 6.71, 6.71, 7.15, 7.6, 8.05, 8.05, 8.49, 8.94, 9.39, 9.83, 9.83, 10.28, 10.73, 11.18, 11.62, 12.07, 12.07, 12.52, 12.96, 13.41, 13.41, 13.86, 14.3, 14.3, 14.75, 14.75, 15.2, 15.65, 15.65, 16.09, 16.09, 16.54, 16.54, 16.54, 16.99, 16.99, 16.99, 17.43, 17.43, 17.43, 17.88, 17.88, 17.88, 17.88, 17.88, 17.43, 17.88, 17.88, 17.88, 17.43, 17.43, 17.43, 17.43, 17.43, 17.43, 17.43, 17.88, 17.88, 18.33, 17.88, 17.88, 16.99, 15.65, 14.75, 14.3, 14.75, 15.2, 15.2, 14.75, 15.65, 16.09, 16.99, 17.43, 17.88, 18.33, 18.78, 19.22, 19.67, 20.12, 20.12, 20.56, 20.56, 21.01, 21.01, 21.01, 21.01, 21.01, 2.68, 3.13, 3.58, 3.58, 4.02, 4.47, 4.92, 5.36, 5.81, 5.81, 6.26, 6.71, 6.71, 7.15, 7.6, 8.05, 8.05, 8.49, 8.94, 9.39, 9.83, 10.28, 10.28, 10.73, 11.18, 11.62, 11.62, 12.07, 12.52, 12.96, 12.96, 13.41, 13.86, 14.3, 14.3, 14.75, 14.75, 15.2, 15.2, 15.2, 15.65, 15.65, 16.09, 16.09, 16.54, 16.54, 16.54, 16.99, 16.99, 16.99, 16.99, 17.43, 17.43, 17.43, 17.43, 17.43, 17.43, 17.43, 17.43, 16.99, 16.99, 16.99, 16.99, 16.99, 16.99, 16.99, 17.43, 17.43, 17.43, 17.43, 17.43, 17.43, 17.43, 15.65, 14.3, 14.3, 15.2, 15.65, 15.65, 15.2, 15.2, 16.09, 16.99, 17.43, 17.88, 18.33, 18.33, 18.78, 19.22, 19.67, 20.12, 20.12, 20.56, 20.56, 20.56, 20.56, 21.01, 21.01, 2.68, 3.13, 3.13, 3.58, 4.02, 4.47, 4.92, 5.36, 5.81, 5.81, 6.26, 6.71, 7.15, 7.15, 7.6, 8.05, 8.49, 8.49, 8.94, 9.39, 9.83, 10.28, 10.28, 10.73, 11.18, 11.62, 11.62, 12.07, 12.52, 12.52, 12.96, 13.41, 13.86, 13.86, 14.3, 14.3, 14.75, 14.75, 15.2, 15.2, 15.2, 15.65, 15.65, 16.09, 16.09, 16.09, 16.54, 16.54, 16.54, 16.54, 16.54, 16.99, 16.99, 16.99, 16.99, 16.99, 16.99, 16.54, 16.54, 16.54, 16.54, 16.54, 16.54, 16.54, 16.54, 16.99, 16.99, 16.99, 16.99, 16.99, 16.54, 16.54, 16.99, 15.2, 13.86, 14.3, 15.65, 15.65, 15.65, 15.65, 15.65, 16.09, 16.54, 17.43, 17.88, 18.33, 18.33, 18.33, 18.78, 19.22, 19.67, 20.12, 20.12, 20.12, 20.56, 20.56, 20.56, 20.56, 2.68, 3.13, 3.13, 3.58, 4.02, 4.47, 4.92, 5.36, 5.36, 5.81, 6.26, 6.71, 7.15, 7.15, 7.6, 8.05, 8.49, 8.49, 8.94, 9.39, 9.83, 10.28, 10.28, 10.73, 11.18, 11.62, 11.62, 12.07, 12.52, 12.52, 12.96, 12.96, 13.41, 13.86, 13.86, 14.3, 14.3, 14.75, 14.75, 14.75, 15.2, 15.2, 15.65, 15.65, 15.65, 16.09, 16.09, 16.09, 16.09, 16.09, 16.54, 16.54, 16.54, 16.54, 16.54, 16.54, 16.54, 16.09, 16.09, 16.09, 16.09, 16.09, 16.09, 16.09, 16.09, 16.54, 16.54, 16.54, 16.54, 16.54, 16.54, 15.65, 15.2, 13.86, 14.75, 14.75, 15.2, 15.2, 15.65, 15.65, 15.65, 16.09, 16.54, 16.99, 17.43, 17.88, 17.88, 18.33, 18.33, 18.78, 19.22, 19.67, 20.12, 20.12, 20.12, 20.12, 20.12, 20.12, 2.68, 2.68, 3.13, 3.58, 4.02, 4.47, 4.92, 5.36, 5.81, 5.81, 6.26, 6.71, 7.15, 7.6, 7.6, 8.05, 8.49, 8.94, 8.94, 9.39, 9.83, 10.28, 10.28, 10.73, 11.18, 11.62, 11.62, 12.07, 12.07, 12.52, 12.96, 12.96, 13.41, 13.41, 13.86, 13.86, 14.3, 14.3, 14.75, 14.75, 14.75, 15.2, 15.2, 15.2, 15.65, 15.65, 15.65, 15.65, 16.09, 16.09, 16.09, 16.09, 16.54, 16.54, 16.09, 16.09, 16.09, 16.09, 15.65, 15.65, 15.65, 15.65, 15.65, 15.65, 15.65, 15.65, 15.65, 16.09, 16.09, 16.54, 16.54, 16.09, 12.96, 13.41, 14.75, 14.75, 14.3, 14.75, 15.2, 16.09, 16.09, 16.54, 16.54, 16.54, 16.99, 17.43, 17.43, 17.88, 17.88, 18.33, 19.22, 19.67, 19.67, 19.67, 19.67, 19.67, 20.12, 20.12, 2.68, 2.68, 3.13, 3.13, 4.02, 4.47, 4.92, 5.36, 5.81, 6.26, 6.26, 6.71, 7.15, 7.6, 8.05, 8.49, 8.49, 8.94, 9.39, 9.39, 9.83, 10.28, 10.73, 10.73, 11.18, 11.62, 11.62, 12.07, 12.07, 12.52, 12.52, 12.96, 12.96, 13.41, 13.41, 13.86, 13.86, 14.3, 14.3, 14.3, 14.75, 14.75, 14.75, 15.2, 15.2, 15.2, 15.65, 15.65, 15.65, 15.65, 15.65, 16.09, 16.09, 16.09, 16.09, 16.09, 16.09, 15.65, 15.65, 15.2, 14.75, 15.2, 15.2, 15.2, 15.2, 15.2, 15.2, 15.65, 15.65, 16.09, 16.09, 15.65, 13.86, 12.96, 14.3, 14.75, 14.3, 14.3, 15.2, 15.65, 16.54, 16.54, 16.54, 16.99, 16.99, 16.99, 16.99, 17.43, 17.43, 17.43, 18.33, 19.22, 19.22, 19.67, 19.67, 19.67, 19.67, 19.67, 2.68, 2.68, 3.13, 3.58, 4.02, 4.47, 4.92, 5.36, 5.81, 6.26, 6.71, 7.15, 7.6, 7.6, 8.05, 8.49, 8.94, 8.94, 9.39, 9.83, 9.83, 10.28, 10.73, 10.73, 11.18, 11.62, 11.62, 12.07, 12.07, 12.52, 12.52, 12.52, 12.96, 12.96, 13.41, 13.41, 13.86, 13.86, 13.86, 14.3, 14.3, 14.3, 14.75, 14.75, 14.75, 14.75, 15.2, 15.2, 15.2, 15.2, 15.2, 15.65, 15.65, 15.65, 15.65, 15.65, 15.65, 15.65, 15.65, 15.2, 14.75, 14.75, 14.75, 14.75, 14.75, 14.75, 14.75, 15.2, 15.2, 15.65, 16.09, 16.09, 14.75, 12.96, 13.41, 13.86, 13.86, 13.86, 14.75, 15.65, 16.09, 16.54, 16.99, 16.99, 16.99, 16.54, 16.99, 16.99, 16.99, 16.99, 16.99, 18.33, 18.78, 19.22, 19.67, 19.67, 19.67, 19.67, 3.13, 3.13, 3.58, 3.58, 4.02, 4.47, 4.92, 5.81, 6.26, 6.26, 6.71, 7.15, 7.6, 8.05, 8.49, 8.49, 8.94, 9.39, 9.39, 9.83, 10.28, 10.28, 10.73, 10.73, 11.18, 11.62, 11.62, 12.07, 12.07, 12.07, 12.52, 12.52, 12.96, 12.96, 12.96, 13.41, 13.41, 13.41, 13.86, 13.86, 13.86, 14.3, 14.3, 14.3, 14.3, 14.75, 14.75, 14.75, 14.75, 15.2, 15.2, 15.2, 15.2, 15.2, 15.2, 15.65, 15.65, 15.65, 15.2, 15.2, 14.75, 14.3, 14.3, 14.75, 14.75, 14.75, 14.75, 14.75, 15.2, 15.2, 15.65, 15.65, 15.2, 13.86, 12.96, 12.96, 12.96, 13.86, 14.75, 15.2, 15.65, 16.09, 16.54, 16.54, 16.54, 16.54, 16.54, 16.54, 16.99, 16.99, 16.99, 17.43, 18.33, 18.78, 19.22, 19.22, 19.22, 19.22, 3.13, 3.13, 3.58, 4.02, 4.47, 4.92, 4.92, 5.36, 6.26, 6.71, 7.15, 7.6, 7.6, 8.05, 8.49, 8.94, 8.94, 9.39, 9.83, 9.83, 10.28, 10.28, 10.73, 10.73, 11.18, 11.18, 11.62, 11.62, 12.07, 12.07, 12.52, 12.07, 12.52, 12.52, 12.52, 12.96, 12.96, 12.96, 12.96, 13.41, 13.41, 13.41, 13.41, 13.86, 14.3, 14.3, 14.3, 14.3, 14.75, 14.75, 14.75, 14.75, 14.75, 15.2, 15.2, 15.2, 15.2, 15.2, 15.2, 15.2, 14.75, 14.75, 14.3, 14.3, 14.3, 14.3, 14.75, 14.75, 14.75, 14.75, 15.2, 15.2, 15.65, 14.75, 13.41, 12.52, 12.07, 12.96, 14.75, 15.2, 15.65, 16.09, 16.09, 16.54, 16.09, 16.09, 16.54, 16.54, 16.54, 16.99, 16.99, 16.99, 17.43, 18.33, 18.78, 18.78, 19.22, 19.22, 3.58, 3.58, 4.02, 4.47, 4.92, 4.92, 5.36, 5.81, 6.26, 6.71, 7.15, 7.6, 8.05, 8.05, 8.49, 8.94, 8.94, 9.39, 9.83, 9.83, 10.28, 10.28, 10.73, 10.73, 11.18, 11.18, 11.62, 11.18, 11.62, 11.62, 12.07, 12.07, 12.07, 12.52, 12.52, 12.52, 12.52, 12.96, 12.96, 12.96, 12.96, 12.96, 13.41, 13.41, 13.41, 13.86, 13.86, 14.3, 14.3, 14.3, 14.3, 14.3, 14.75, 14.75, 14.75, 15.2, 15.2, 15.2, 14.75, 14.75, 14.75, 14.75, 14.75, 14.3, 14.3, 14.3, 14.3, 14.75, 14.75, 14.75, 14.75, 14.75, 15.2, 15.2, 14.75, 13.41, 12.07, 12.07, 13.86, 15.2, 15.65, 15.65, 16.09, 16.09, 16.09, 16.54, 16.54, 16.54, 16.54, 16.54, 16.99, 16.99, 16.99, 17.43, 17.88, 18.33, 18.78, 18.78, 3.58, 3.58, 4.02, 4.47, 4.92, 5.36, 5.81, 5.81, 6.26, 6.71, 7.6, 7.6, 8.05, 8.49, 8.49, 8.94, 8.94, 9.39, 9.83, 9.83, 10.28, 10.28, 10.28, 10.73, 10.73, 10.73, 11.18, 11.18, 11.18, 11.62, 11.62, 11.62, 12.07, 12.07, 12.07, 12.52, 12.52, 12.52, 12.52, 12.96, 12.96, 12.96, 12.96, 12.96, 12.96, 13.41, 13.41, 13.41, 13.86, 13.86, 14.3, 14.3, 14.3, 14.3, 14.75, 14.75, 14.75, 14.75, 14.75, 14.75, 14.75, 14.75, 14.3, 14.3, 14.3, 13.86, 13.86, 13.86, 14.3, 14.75, 14.75, 14.3, 14.3, 14.75, 14.75, 14.3, 12.96, 12.52, 12.96, 14.3, 15.2, 15.2, 15.65, 15.65, 16.09, 16.09, 16.54, 16.54, 16.54, 16.54, 16.54, 16.54, 16.54, 16.99, 16.99, 17.43, 17.88, 17.88, 3.58, 3.58, 4.02, 4.92, 5.36, 5.36, 5.81, 6.26, 6.71, 6.71, 7.15, 7.6, 8.05, 8.05, 8.49, 8.94, 8.94, 9.39, 9.39, 9.83, 9.83, 10.28, 10.28, 10.28, 10.28, 10.73, 10.73, 10.73, 11.18, 11.18, 11.62, 11.62, 11.62, 12.07, 12.07, 12.07, 12.07, 12.52, 12.52, 12.52, 12.52, 12.52, 12.96, 12.96, 12.96, 12.96, 12.96, 13.41, 13.41, 13.41, 13.41, 13.41, 13.86, 13.86, 14.3, 14.3, 14.3, 14.3, 14.3, 14.3, 14.3, 14.3, 14.3, 14.3, 13.86, 13.86, 13.86, 13.86, 13.86, 14.3, 14.75, 14.3, 13.86, 13.86, 14.75, 14.3, 13.86, 13.41, 12.96, 12.96, 14.3, 14.75, 15.2, 15.2, 15.65, 16.09, 16.09, 16.54, 16.54, 16.54, 16.54, 16.54, 16.54, 16.54, 16.99, 16.99, 17.43, 17.43, 4.02, 4.02, 4.47, 4.92, 5.36, 5.81, 5.81, 6.26, 6.71, 7.15, 7.15, 7.6, 8.05, 8.05, 8.49, 8.49, 8.94, 9.39, 9.39, 9.39, 9.83, 9.83, 9.83, 9.83, 10.28, 10.28, 10.73, 10.73, 10.73, 11.18, 11.18, 11.18, 11.62, 11.62, 11.62, 12.07, 12.07, 12.07, 12.07, 12.07, 12.52, 12.52, 12.52, 12.52, 12.52, 12.52, 12.96, 12.96, 12.96, 12.96, 12.96, 13.41, 13.41, 13.86, 13.86, 13.86, 14.3, 14.3, 14.3, 14.3, 14.3, 14.3, 13.86, 13.86, 13.86, 13.86, 14.3, 14.3, 13.86, 13.86, 14.3, 14.3, 13.86, 13.41, 13.86, 13.86, 13.86, 14.3, 13.86, 12.96, 12.96, 13.86, 14.75, 14.75, 15.2, 15.65, 16.09, 16.09, 16.54, 16.54, 16.54, 16.54, 16.54, 16.54, 16.54, 16.99, 16.99, 16.99, 3.58, 3.58, 4.02, 4.47, 4.92, 5.36, 5.81, 6.26, 6.71, 6.71, 7.15, 7.6, 7.6, 8.05, 8.49, 8.49, 8.94, 8.94, 8.94, 8.94, 9.39, 9.39, 9.83, 9.83, 9.83, 10.28, 10.28, 10.28, 10.73, 10.73, 11.18, 11.18, 11.18, 11.62, 11.62, 11.62, 11.62, 12.07, 12.07, 12.07, 12.07, 12.07, 12.07, 12.52, 12.52, 12.52, 12.52, 12.52, 12.52, 12.52, 12.96, 12.96, 12.96, 12.96, 12.96, 13.86, 13.86, 13.86, 13.86, 13.86, 13.86, 13.86, 13.86, 13.86, 13.86, 13.86, 14.3, 14.3, 14.3, 13.86, 13.86, 13.86, 14.3, 13.86, 13.41, 13.41, 13.86, 14.3, 13.86, 13.41, 12.96, 13.41, 13.86, 14.3, 14.75, 15.2, 15.65, 16.09, 16.09, 16.54, 16.54, 16.54, 16.54, 16.54, 16.54, 16.54, 16.99, 16.99, 3.58, 3.58, 4.02, 4.47, 4.92, 5.36, 5.81, 6.26, 6.26, 6.71, 7.15, 7.15, 7.6, 7.6, 8.05, 8.49, 8.49, 8.49, 8.49, 8.94, 8.94, 9.39, 9.39, 9.83, 9.83, 9.83, 10.28, 10.28, 10.28, 10.73, 10.73, 11.18, 11.18, 11.18, 11.18, 11.62, 11.62, 11.62, 11.62, 11.62, 11.62, 12.07, 12.07, 12.07, 12.07, 12.07, 12.07, 12.07, 12.07, 12.52, 12.52, 12.52, 12.52, 12.96, 12.96, 12.96, 12.96, 13.41, 13.41, 13.41, 13.41, 13.41, 13.41, 13.86, 13.86, 13.86, 13.86, 14.3, 14.3, 13.86, 13.86, 13.86, 13.86, 14.3, 13.41, 12.96, 13.41, 13.86, 13.86, 13.41, 12.96, 12.96, 13.41, 13.86, 14.3, 14.75, 15.2, 15.65, 15.65, 16.09, 16.09, 16.54, 16.54, 16.54, 16.54, 16.54, 16.54, 16.54, 3.58, 3.58, 4.02, 4.47, 4.47, 4.92, 5.36, 5.81, 6.26, 6.71, 6.71, 7.15, 7.15, 7.6, 8.05, 8.05, 8.05, 8.49, 8.49, 8.49, 8.94, 8.94, 9.39, 9.39, 9.83, 9.83, 9.83, 10.28, 10.28, 10.28, 10.73, 10.73, 10.73, 11.18, 11.18, 11.18, 11.18, 11.18, 11.62, 11.62, 11.62, 11.62, 11.62, 11.62, 12.07, 12.07, 12.07, 12.07, 12.07, 12.07, 12.07, 12.07, 12.07, 12.52, 12.52, 12.52, 12.52, 12.52, 13.41, 13.41, 13.41, 13.41, 13.41, 13.41, 13.86, 13.86, 13.86, 13.86, 14.3, 14.3, 13.86, 13.41, 13.86, 14.3, 13.86, 13.41, 13.41, 13.86, 13.41, 13.41, 12.96, 12.96, 12.96, 13.41, 13.86, 14.3, 14.75, 15.2, 15.2, 15.65, 16.09, 16.09, 16.54, 16.54, 16.54, 16.54, 16.54, 16.54, 3.13, 3.13, 3.58, 4.02, 4.47, 4.92, 5.36, 5.36, 5.81, 6.26, 6.26, 6.71, 7.15, 7.15, 7.15, 7.6, 8.05, 8.05, 8.49, 8.49, 8.49, 8.94, 8.94, 9.39, 9.39, 9.83, 9.83, 9.83, 10.28, 10.28, 10.28, 10.73, 10.73, 10.73, 10.73, 10.73, 11.18, 11.18, 11.18, 11.18, 11.18, 11.18, 11.62, 11.62, 11.62, 11.62, 11.62, 11.62, 11.62, 11.62, 11.62, 11.62, 12.07, 12.07, 12.07, 12.07, 12.52, 12.52, 12.52, 12.96, 12.96, 13.41, 13.41, 13.41, 13.41, 13.41, 13.86, 13.86, 13.86, 14.3, 13.86, 13.86, 13.41, 13.86, 13.86, 13.41, 12.96, 12.96, 13.41, 12.96, 12.96, 12.96, 12.96, 13.41, 13.41, 13.86, 14.3, 14.75, 14.75, 15.2, 15.65, 16.09, 16.09, 16.09, 16.09, 16.09, 16.54, 16.54, 3.13, 3.13, 3.58, 3.58, 4.02, 4.47, 4.92, 5.36, 5.81, 5.81, 6.26, 6.26, 6.71, 6.71, 7.15, 7.15, 7.6, 8.05, 8.05, 8.49, 8.49, 8.94, 8.94, 8.94, 9.39, 9.39, 9.83, 9.83, 9.83, 10.28, 10.28, 10.28, 10.28, 10.73, 10.73, 10.73, 10.73, 10.73, 10.73, 11.18, 11.18, 11.18, 11.18, 11.18, 11.18, 11.62, 11.62, 11.62, 11.62, 11.62, 11.62, 11.62, 11.62, 11.62, 11.62, 12.07, 12.07, 12.07, 12.07, 12.52, 12.52, 12.96, 12.96, 13.41, 13.41, 13.41, 13.41, 13.86, 13.86, 13.86, 14.3, 13.86, 13.86, 13.41, 13.86, 13.41, 12.96, 12.52, 12.52, 12.52, 12.52, 12.52, 12.96, 12.96, 13.41, 13.41, 13.86, 14.3, 14.75, 15.2, 15.2, 15.65, 15.65, 16.09, 16.09, 16.09, 16.09, 16.09, 2.68, 2.68, 3.13, 3.58, 4.02, 4.47, 4.92, 4.92, 5.36, 5.81, 5.81, 6.26, 6.26, 6.71, 6.71, 7.15, 7.6, 7.6, 8.05, 8.05, 8.49, 8.49, 8.94, 8.94, 9.39, 9.39, 9.39, 9.83, 9.83, 9.83, 9.83, 10.28, 10.28, 10.28, 10.28, 10.28, 10.73, 10.73, 10.73, 10.73, 10.73, 10.73, 10.73, 10.73, 11.18, 11.18, 11.18, 11.18, 11.18, 11.18, 11.18, 11.18, 11.18, 11.18, 11.62, 11.62, 11.62, 12.07, 12.07, 12.52, 12.52, 12.52, 12.96, 12.96, 13.41, 13.41, 13.41, 13.41, 13.86, 13.86, 14.3, 14.3, 13.86, 13.41, 13.41, 13.41, 12.96, 12.52, 12.07, 11.62, 12.07, 12.07, 12.07, 12.52, 12.96, 12.96, 13.41, 13.86, 14.3, 14.75, 15.2, 15.2, 15.65, 15.65, 16.09, 16.09, 16.09, 16.09, 2.68, 2.68, 3.13, 3.58, 4.02, 4.02, 4.47, 4.92, 5.36, 5.36, 5.81, 5.81, 6.26, 6.71, 6.71, 7.15, 7.15, 7.6, 8.05, 8.05, 8.49, 8.49, 8.49, 8.94, 8.94, 9.39, 9.39, 9.39, 9.39, 9.83, 9.83, 9.83, 9.83, 10.28, 10.28, 10.28, 10.28, 10.28, 10.28, 10.28, 10.28, 10.73, 10.73, 10.73, 10.73, 10.73, 11.18, 11.18, 11.18, 11.18, 11.18, 11.18, 11.18, 11.18, 11.18, 11.18, 11.62, 11.62, 12.07, 12.07, 12.52, 12.52, 12.52, 12.96, 12.96, 13.41, 13.41, 13.41, 13.41, 13.86, 14.3, 14.3, 14.3, 13.86, 13.41, 12.96, 12.96, 12.52, 12.07, 11.62, 11.62, 11.62, 11.62, 12.07, 12.07, 12.52, 12.96, 13.41, 13.86, 14.3, 14.75, 15.2, 15.65, 15.65, 15.65, 15.65, 15.65, 16.09, 2.68, 2.68, 3.13, 3.58, 3.58, 4.02, 4.47, 4.92, 4.92, 5.36, 5.81, 5.81, 6.26, 6.26, 6.71, 6.71, 7.15, 7.15, 8.05, 8.05, 8.05, 8.49, 8.49, 8.94, 8.94, 8.94, 9.39, 9.39, 9.39, 9.39, 9.83, 9.83, 9.83, 9.83, 9.83, 9.83, 9.83, 10.28, 10.28, 10.28, 10.28, 10.28, 10.28, 10.28, 10.28, 10.28, 10.73, 10.73, 10.73, 10.73, 10.73, 10.73, 10.73, 11.18, 11.18, 11.18, 11.18, 11.62, 11.62, 12.07, 12.07, 12.07, 12.52, 12.52, 12.96, 12.96, 13.41, 13.41, 13.41, 13.86, 13.86, 14.3, 14.3, 14.3, 13.86, 12.52, 12.52, 12.52, 11.62, 11.62, 11.18, 11.18, 11.18, 11.62, 11.62, 12.07, 12.52, 13.41, 13.86, 14.3, 14.75, 15.2, 15.2, 15.65, 15.65, 15.65, 15.65, 15.65, 2.68, 2.68, 3.13, 3.58, 3.58, 4.02, 4.47, 4.92, 4.92, 5.36, 5.81, 5.81, 6.26, 6.26, 6.71, 6.71, 7.15, 7.15, 7.6, 8.05, 8.05, 8.49, 8.49, 8.49, 8.94, 8.94, 8.94, 8.94, 9.39, 9.39, 9.39, 9.39, 9.39, 9.83, 9.83, 9.83, 9.83, 9.83, 9.83, 9.83, 9.83, 9.83, 9.83, 9.83, 10.28, 10.28, 10.28, 10.28, 10.73, 10.73, 10.73, 10.73, 10.73, 10.73, 10.73, 11.18, 11.18, 11.18, 11.62, 11.62, 12.07, 12.07, 12.07, 12.52, 12.52, 12.96, 12.96, 13.41, 13.41, 13.41, 13.86, 13.86, 14.3, 14.3, 14.3, 13.41, 12.52, 12.07, 11.62, 11.62, 11.18, 11.18, 10.73, 11.18, 11.62, 12.07, 12.52, 12.96, 13.41, 14.3, 14.75, 15.2, 15.2, 15.2, 15.2, 15.65, 15.65, 15.65, 2.68, 2.68, 3.13, 3.58, 4.02, 4.02, 4.47, 4.92, 4.92, 5.36, 5.81, 5.81, 6.26, 6.26, 6.71, 6.71, 7.15, 7.15, 7.6, 8.05, 8.05, 8.05, 8.49, 8.49, 8.49, 8.94, 8.94, 8.94, 8.94, 8.94, 9.39, 9.39, 9.39, 9.39, 9.39, 9.39, 9.39, 9.39, 9.39, 9.83, 9.83, 9.83, 9.83, 9.83, 9.83, 9.83, 9.83, 10.28, 10.28, 10.28, 10.28, 10.28, 10.73, 10.73, 10.73, 10.73, 11.18, 11.18, 11.18, 11.62, 11.62, 12.07, 12.07, 12.52, 12.52, 12.52, 12.96, 12.96, 13.41, 13.41, 13.41, 13.86, 13.86, 14.3, 14.3, 13.86, 12.96, 12.07, 12.07, 11.62, 11.18, 10.73, 10.73, 10.73, 11.18, 11.62, 12.07, 12.96, 13.41, 13.86, 14.3, 14.75, 14.75, 15.2, 15.2, 15.65, 15.65, 15.65, 3.13, 3.13, 3.13, 3.58, 4.02, 4.47, 4.47, 4.92, 5.36, 5.36, 5.81, 5.81, 6.26, 6.26, 6.71, 6.71, 7.15, 7.15, 7.6, 7.6, 8.05, 8.05, 8.05, 8.49, 8.49, 8.49, 8.49, 8.94, 8.94, 8.94, 8.94, 8.94, 8.94, 8.94, 8.94, 9.39, 9.39, 9.39, 9.39, 9.39, 9.39, 9.39, 9.39, 9.39, 9.83, 9.83, 9.83, 9.83, 9.83, 9.83, 10.28, 10.28, 10.28, 10.28, 10.73, 10.73, 10.73, 11.18, 11.18, 11.18, 11.62, 11.62, 12.07, 12.07, 12.52, 12.52, 12.52, 12.96, 12.96, 13.41, 13.41, 13.41, 13.41, 13.41, 13.86, 13.86, 13.86, 12.96, 12.07, 12.07, 11.62, 11.18, 10.73, 10.28, 10.73, 11.18, 12.07, 12.52, 13.41, 13.86, 14.3, 14.3, 14.75, 14.75, 15.2, 15.65, 15.65, 15.65, 3.13, 3.13, 3.58, 3.58, 4.02, 4.47, 4.92, 4.92, 5.36, 5.36, 5.81, 5.81, 6.26, 6.26, 6.71, 6.71, 7.15, 7.15, 7.15, 7.6, 7.6, 8.05, 8.05, 8.05, 8.05, 8.49, 8.49, 8.49, 8.49, 8.49, 8.49, 8.94, 8.94, 8.94, 8.94, 8.94, 8.94, 8.94, 8.94, 8.94, 8.94, 9.39, 9.39, 9.39, 9.39, 9.39, 9.39, 9.83, 9.83, 9.83, 9.83, 9.83, 10.28, 10.28, 10.28, 10.73, 10.73, 10.73, 11.18, 11.18, 11.62, 11.62, 12.07, 12.07, 12.07, 12.52, 12.52, 12.52, 12.96, 12.96, 12.96, 12.96, 12.96, 13.41, 13.41, 13.86, 13.86, 13.41, 12.52, 12.07, 11.62, 11.18, 10.73, 10.28, 10.28, 10.73, 11.62, 12.52, 12.96, 13.41, 13.86, 14.3, 14.3, 14.75, 15.2, 15.2, 15.2, 15.2, 3.13, 3.13, 3.58, 4.02, 4.02, 4.47, 4.92, 4.92, 5.36, 5.36, 5.81, 5.81, 6.26, 6.26, 6.71, 6.71, 6.71, 7.15, 7.15, 7.15, 7.6, 7.6, 7.6, 8.05, 8.05, 8.05, 8.05, 8.05, 8.49, 8.49, 8.49, 8.49, 8.49, 8.49, 8.49, 8.49, 8.49, 8.94, 8.94, 8.94, 8.94, 8.94, 8.94, 8.94, 9.39, 9.39, 9.39, 9.39, 9.83, 9.83, 9.83, 9.83, 9.83, 10.28, 10.28, 10.73, 10.73, 10.73, 11.18, 11.18, 11.18, 11.62, 11.62, 12.07, 12.07, 12.07, 12.07, 12.07, 12.07, 12.52, 12.52, 12.52, 12.96, 12.96, 12.96, 13.41, 13.41, 13.41, 12.96, 12.52, 12.07, 11.18, 10.28, 9.83, 9.83, 10.28, 11.18, 12.07, 12.96, 13.41, 13.86, 13.86, 14.3, 14.75, 14.75, 15.2, 15.2, 15.2, 3.13, 3.13, 3.58, 4.02, 4.47, 4.47, 4.92, 4.92, 5.36, 5.36, 5.81, 5.81, 6.26, 6.26, 6.26, 6.71, 6.71, 6.71, 7.15, 7.15, 7.6, 7.6, 7.6, 7.6, 7.6, 8.05, 8.05, 8.05, 8.05, 8.05, 8.05, 8.05, 8.05, 8.49, 8.49, 8.49, 8.49, 8.49, 8.49, 8.49, 8.49, 8.94, 8.94, 8.94, 8.94, 9.39, 9.39, 9.39, 9.39, 9.83, 9.83, 9.83, 9.83, 10.28, 10.28, 10.28, 10.73, 10.73, 10.73, 11.18, 11.18, 11.18, 11.62, 11.62, 11.62, 12.07, 12.07, 12.07, 12.07, 12.07, 12.52, 12.52, 12.52, 12.52, 12.96, 12.96, 13.41, 13.41, 12.96, 12.96, 12.52, 11.62, 10.28, 9.83, 9.83, 9.83, 10.73, 12.07, 12.52, 13.41, 13.41, 13.86, 13.86, 14.3, 14.75, 15.2, 15.2, 15.2, 3.58, 3.58, 3.58, 4.02, 4.47, 4.47, 4.92, 4.92, 5.36, 5.36, 5.81, 5.81, 6.26, 6.26, 6.26, 6.71, 6.71, 6.71, 6.71, 7.15, 7.15, 7.15, 7.6, 7.6, 7.6, 7.6, 7.6, 7.6, 7.6, 8.05, 8.05, 8.05, 8.05, 8.05, 8.05, 8.05, 8.05, 8.05, 8.49, 8.49, 8.49, 8.49, 8.94, 8.94, 8.94, 8.94, 9.39, 9.39, 9.39, 9.39, 9.83, 9.83, 9.83, 9.83, 10.28, 10.28, 10.73, 10.73, 10.73, 10.73, 11.18, 11.18, 11.18, 11.18, 11.62, 11.62, 11.62, 11.62, 12.07, 12.07, 12.07, 12.07, 12.52, 12.52, 12.52, 12.96, 12.96, 12.96, 12.96, 12.96, 12.52, 12.07, 10.73, 9.39, 9.39, 9.83, 10.73, 12.07, 12.96, 12.96, 13.41, 13.86, 13.86, 14.3, 14.75, 14.75, 14.75, 14.75, 3.58, 3.58, 4.02, 4.02, 4.47, 4.47, 4.92, 4.92, 5.36, 5.36, 5.36, 5.81, 5.81, 6.26, 6.26, 6.26, 6.71, 6.71, 6.71, 6.71, 6.71, 7.15, 7.15, 7.15, 7.15, 7.6, 7.6, 7.6, 7.6, 7.6, 7.6, 7.6, 7.6, 8.05, 8.05, 8.05, 8.05, 8.05, 8.05, 8.49, 8.49, 8.49, 8.49, 8.94, 8.94, 8.94, 8.94, 9.39, 9.39, 9.39, 9.39, 9.83, 9.83, 9.83, 10.28, 10.28, 10.28, 10.73, 10.73, 10.73, 10.73, 11.18, 11.18, 11.18, 11.18, 11.18, 11.18, 11.18, 11.62, 11.62, 11.62, 12.07, 12.07, 12.52, 12.52, 12.52, 12.96, 12.96, 12.96, 12.96, 12.96, 12.52, 11.18, 9.39, 8.94, 9.83, 12.07, 12.52, 12.52, 12.96, 13.41, 13.86, 13.86, 14.3, 14.3, 14.75, 14.75, 14.75, 3.58, 3.58, 4.02, 4.02, 4.47, 4.47, 4.92, 4.92, 5.36, 5.36, 5.36, 5.81, 5.81, 5.81, 6.26, 6.26, 6.26, 6.26, 6.71, 6.71, 6.71, 6.71, 7.15, 7.15, 7.15, 7.15, 7.15, 7.15, 7.15, 7.15, 7.6, 7.6, 7.6, 7.6, 7.6, 7.6, 8.05, 8.05, 8.05, 8.05, 8.49, 8.49, 8.49, 8.49, 8.94, 8.94, 8.94, 8.94, 9.39, 9.39, 9.39, 9.83, 9.83, 9.83, 10.28, 10.28, 10.28, 10.73, 10.73, 10.73, 10.73, 10.73, 10.73, 10.73, 11.18, 11.18, 11.18, 11.18, 11.18, 11.18, 11.62, 11.62, 12.07, 12.52, 12.52, 12.52, 12.52, 12.96, 12.96, 12.96, 12.96, 12.52, 12.07, 10.28, 8.94, 10.73, 11.62, 12.07, 12.52, 12.52, 12.96, 13.86, 13.86, 14.3, 14.3, 14.3, 14.3, 14.3, 3.58, 3.58, 4.02, 4.02, 4.47, 4.47, 4.92, 4.92, 4.92, 5.36, 5.36, 5.36, 5.81, 5.81, 5.81, 5.81, 6.26, 6.26, 6.26, 6.26, 6.71, 6.71, 6.71, 6.71, 6.71, 7.15, 7.15, 7.15, 7.15, 7.15, 7.15, 7.15, 7.6, 7.6, 7.6, 7.6, 8.05, 8.05, 8.05, 8.05, 8.05, 8.49, 8.49, 8.49, 8.94, 8.94, 8.94, 8.94, 9.39, 9.39, 9.39, 9.39, 9.83, 9.83, 9.83, 10.28, 10.28, 10.28, 10.28, 10.73, 10.73, 10.73, 10.73, 10.73, 10.73, 10.73, 10.73, 10.73, 10.73, 11.18, 11.18, 11.62, 11.62, 12.07, 12.52, 12.52, 12.52, 12.52, 12.96, 12.96, 12.96, 12.96, 12.96, 11.62, 9.83, 10.28, 11.18, 11.62, 12.07, 12.52, 12.96, 13.41, 13.86, 13.86, 13.86, 13.86, 13.86, 13.86, 3.58, 3.58, 4.02, 4.02, 4.47, 4.47, 4.47, 4.92, 4.92, 5.36, 5.36, 5.36, 5.36, 5.81, 5.81, 5.81, 5.81, 6.26, 6.26, 6.26, 6.26, 6.26, 6.71, 6.71, 6.71, 6.71, 6.71, 6.71, 7.15, 7.15, 7.15, 7.15, 7.15, 7.6, 7.6, 7.6, 7.6, 8.05, 8.05, 8.05, 8.05, 8.49, 8.49, 8.49, 8.49, 8.94, 8.94, 8.94, 8.94, 9.39, 9.39, 9.39, 9.39, 9.83, 9.83, 9.83, 10.28, 10.28, 10.28, 10.28, 10.28, 10.28, 10.28, 10.73, 10.73, 10.73, 10.73, 10.73, 10.73, 11.18, 11.18, 11.18, 11.18, 11.62, 12.07, 12.07, 12.52, 12.52, 12.52, 12.96, 12.96, 12.96, 12.96, 10.73, 9.83, 9.83, 10.28, 11.18, 11.62, 12.07, 12.96, 13.41, 13.41, 13.41, 13.41, 13.41, 13.41, 13.41, 3.58, 3.58, 4.02, 4.02, 4.47, 4.47, 4.47, 4.92, 4.92, 4.92, 5.36, 5.36, 5.36, 5.36, 5.36, 5.81, 5.81, 5.81, 5.81, 6.26, 6.26, 6.26, 6.26, 6.26, 6.71, 6.71, 6.71, 6.71, 6.71, 7.15, 7.15, 7.15, 7.15, 7.6, 7.6, 7.6, 7.6, 8.05, 8.05, 8.05, 8.05, 8.49, 8.49, 8.49, 8.49, 8.49, 8.94, 8.94, 8.94, 8.94, 9.39, 9.39, 9.83, 9.83, 9.83, 9.83, 9.83, 9.83, 10.28, 10.28, 10.28, 10.28, 10.28, 10.28, 10.28, 10.73, 10.73, 10.73, 10.73, 11.18, 11.18, 11.18, 11.18, 11.18, 11.18, 11.62, 12.07, 12.07, 12.07, 12.52, 12.52, 12.52, 12.52, 10.73, 9.83, 9.39, 9.83, 10.73, 11.62, 12.07, 12.52, 12.96, 13.41, 13.41, 13.41, 13.41, 13.41, 13.41, 3.58, 3.58, 4.02, 4.02, 4.02, 4.47, 4.47, 4.47, 4.92, 4.92, 4.92, 4.92, 5.36, 5.36, 5.36, 5.36, 5.81, 5.81, 5.81, 5.81, 6.26, 6.26, 6.26, 6.26, 6.26, 6.71, 6.71, 6.71, 6.71, 7.15, 7.15, 7.15, 7.15, 7.6, 7.6, 7.6, 7.6, 8.05, 8.05, 8.05, 8.05, 8.49, 8.49, 8.49, 8.49, 8.49, 8.94, 8.94, 8.94, 8.94, 9.39, 9.39, 9.39, 9.39, 9.83, 9.83, 9.83, 9.83, 9.83, 9.83, 9.83, 10.28, 10.28, 10.28, 10.28, 10.28, 10.73, 10.73, 10.73, 10.73, 11.18, 11.18, 11.18, 11.18, 11.18, 11.62, 11.62, 11.62, 12.07, 12.07, 12.07, 12.52, 12.52, 10.73, 9.39, 9.39, 9.83, 10.73, 11.62, 12.07, 12.52, 12.52, 12.96, 13.41, 13.41, 13.41, 13.41, 13.41, 3.58, 3.58, 3.58, 4.02, 4.02, 4.47, 4.47, 4.47, 4.47, 4.92, 4.92, 4.92, 4.92, 5.36, 5.36, 5.36, 5.36, 5.81, 5.81, 5.81, 5.81, 5.81, 6.26, 6.26, 6.26, 6.26, 6.71, 6.71, 6.71, 7.15, 7.15, 7.15, 7.15, 7.6, 7.6, 7.6, 7.6, 8.05, 8.05, 8.05, 8.05, 8.49, 8.49, 8.49, 8.49, 8.49, 8.49, 8.94, 8.94, 8.94, 8.94, 9.39, 9.39, 9.39, 9.39, 9.39, 9.39, 9.83, 9.83, 9.83, 9.83, 9.83, 10.28, 10.28, 10.28, 10.28, 10.28, 10.73, 10.73, 10.73, 11.18, 11.18, 11.18, 11.18, 11.18, 11.62, 11.62, 11.62, 12.07, 12.07, 12.07, 12.52, 12.52, 11.18, 8.94, 9.39, 9.83, 10.73, 11.62, 12.07, 12.52, 12.52, 12.52, 12.96, 13.41, 13.41, 13.41, 13.41, 3.58, 3.58, 3.58, 4.02, 4.02, 4.02, 4.47, 4.47, 4.47, 4.47, 4.92, 4.92, 4.92, 4.92, 5.36, 5.36, 5.36, 5.36, 5.81, 5.81, 5.81, 5.81, 6.26, 6.26, 6.26, 6.71, 6.71, 6.71, 6.71, 7.15, 7.15, 7.15, 7.15, 7.6, 7.6, 7.6, 7.6, 7.6, 8.05, 8.05, 8.05, 8.05, 8.49, 8.49, 8.49, 8.49, 8.49, 8.49, 8.94, 8.94, 8.94, 8.94, 9.39, 9.39, 9.39, 9.39, 9.39, 9.39, 9.83, 9.83, 9.83, 9.83, 9.83, 10.28, 10.28, 10.28, 10.28, 10.28, 10.73, 10.73, 10.73, 10.73, 10.73, 11.18, 11.18, 11.18, 11.18, 11.62, 12.07, 12.07, 12.07, 12.52, 12.52, 12.07, 9.83, 8.94, 9.83, 10.73, 11.62, 12.07, 12.07, 12.07, 12.07, 12.52, 12.96, 12.96, 12.96, 12.96, 3.58, 3.58, 3.58, 4.02, 4.02, 4.02, 4.02, 4.47, 4.47, 4.47, 4.47, 4.92, 4.92, 4.92, 5.36, 5.36, 5.36, 5.36, 5.81, 5.81, 5.81, 5.81, 6.26, 6.26, 6.26, 6.71, 6.71, 6.71, 7.15, 7.15, 7.15, 7.15, 7.15, 7.6, 7.6, 7.6, 7.6, 7.6, 8.05, 8.05, 8.05, 8.05, 8.05, 8.05, 8.49, 8.49, 8.49, 8.49, 8.49, 8.94, 8.94, 8.94, 8.94, 8.94, 9.39, 9.39, 9.39, 9.39, 9.39, 9.83, 9.83, 9.83, 9.83, 10.28, 10.28, 10.28, 10.28, 10.28, 10.28, 10.73, 10.73, 10.73, 10.73, 10.73, 10.73, 10.73, 11.18, 11.18, 11.62, 12.07, 12.07, 12.07, 12.52, 12.52, 10.73, 9.39, 9.39, 10.28, 11.18, 11.62, 12.07, 12.07, 12.07, 12.07, 12.07, 12.52, 12.52, 12.52, 3.58, 3.58, 3.58, 3.58, 4.02, 4.02, 4.02, 4.02, 4.47, 4.47, 4.47, 4.92, 4.92, 4.92, 4.92, 5.36, 5.36, 5.36, 5.81, 5.81, 5.81, 5.81, 6.26, 6.26, 6.26, 6.71, 6.71, 6.71, 7.15, 7.15, 7.15, 7.15, 7.15, 7.15, 7.6, 7.6, 7.6, 7.6, 7.6, 7.6, 8.05, 8.05, 8.05, 8.05, 8.05, 8.49, 8.49, 8.49, 8.49, 8.49, 8.49, 8.94, 8.94, 8.94, 8.94, 9.39, 9.39, 9.39, 9.39, 9.39, 9.83, 9.83, 9.83, 9.83, 10.28, 10.28, 10.28, 10.28, 10.28, 10.28, 10.73, 10.73, 10.73, 10.73, 10.73, 10.73, 10.73, 11.18, 11.18, 11.62, 11.62, 12.07, 12.07, 12.52, 11.62, 9.83, 9.39, 9.83, 10.73, 11.18, 11.62, 12.07, 12.07, 12.07, 12.07, 12.07, 12.07, 12.07, 3.13, 3.13, 3.58, 3.58, 3.58, 3.58, 4.02, 4.02, 4.02, 4.47, 4.47, 4.47, 4.92, 4.92, 4.92, 5.36, 5.36, 5.36, 5.81, 5.81, 5.81, 5.81, 6.26, 6.26, 6.71, 6.71, 6.71, 6.71, 6.71, 7.15, 7.15, 7.15, 7.15, 7.15, 7.15, 7.15, 7.6, 7.6, 7.6, 7.6, 7.6, 7.6, 8.05, 8.05, 8.05, 8.05, 8.05, 8.49, 8.49, 8.49, 8.49, 8.94, 8.94, 8.94, 8.94, 8.94, 9.39, 9.39, 9.39, 9.39, 9.83, 9.83, 9.83, 9.83, 9.83, 10.28, 10.28, 10.28, 10.28, 10.28, 10.28, 10.28, 10.73, 10.73, 10.73, 10.73, 10.73, 10.73, 11.18, 11.18, 11.62, 11.62, 12.07, 12.07, 12.07, 10.73, 9.39, 9.83, 9.83, 10.73, 11.18, 11.62, 11.62, 11.62, 11.62, 12.07, 12.07, 12.07, 3.13, 3.13, 3.13, 3.58, 3.58, 3.58, 4.02, 4.02, 4.02, 4.47, 4.47, 4.47, 4.92, 4.92, 4.92, 5.36, 5.36, 5.36, 5.81, 5.81, 5.81, 5.81, 6.26, 6.26, 6.26, 6.71, 6.71, 6.71, 6.71, 6.71, 6.71, 7.15, 7.15, 7.15, 7.15, 7.15, 7.15, 7.15, 7.6, 7.6, 7.6, 7.6, 7.6, 7.6, 8.05, 8.05, 8.05, 8.05, 8.49, 8.49, 8.49, 8.49, 8.94, 8.94, 8.94, 8.94, 9.39, 9.39, 9.39, 9.39, 9.83, 9.83, 9.83, 9.83, 9.83, 9.83, 9.83, 9.83, 9.83, 10.28, 10.28, 10.28, 10.28, 10.28, 10.28, 10.73, 10.73, 10.73, 10.73, 11.18, 11.18, 11.62, 12.07, 12.07, 12.07, 11.18, 9.83, 9.39, 9.39, 9.83, 10.73, 11.18, 11.62, 11.62, 11.62, 12.07, 12.07, 12.07, 3.13, 3.13, 3.13, 3.58, 3.58, 3.58, 4.02, 4.02, 4.02, 4.47, 4.47, 4.47, 4.92, 4.92, 4.92, 5.36, 5.36, 5.36, 5.81, 5.81, 5.81, 5.81, 6.26, 6.26, 6.26, 6.71, 6.71, 6.71, 6.71, 6.71, 6.71, 7.15, 7.15, 7.15, 7.15, 7.15, 7.15, 7.15, 7.6, 7.6, 7.6, 7.6, 7.6, 7.6, 8.05, 8.05, 8.05, 8.05, 8.49, 8.49, 8.49, 8.49, 8.94, 8.94, 8.94, 8.94, 9.39, 9.39, 9.39, 9.39, 9.83, 9.83, 9.83, 9.83, 9.83, 9.83, 9.83, 9.83, 9.83, 10.28, 10.28, 10.28, 10.28, 10.28, 10.28, 10.73, 10.73, 10.73, 10.73, 11.18, 11.18, 11.62, 12.07, 12.07, 12.07, 11.62, 10.28, 9.39, 9.39, 9.83, 10.28, 10.73, 11.18, 11.62, 11.62, 12.07, 12.07, 12.07]}]